Observation data for McCamey on 11/08/2019      Previous  Date       Current Mesonet Observations  Soil Data  Daily Summary Page  Observations in Plain Language
KMC4 080600Z 34006KT 05/03 A3046 RMK A01 T00450031  RH  091%=      5-min Rain = 0
KMC4 080601Z 34006KT 04/03 A3046 RMK A01 T00440031  RH  091%=      5-min Rain = 0
KMC4 080602Z 34006KT 04/03 A3046 RMK A01 T00440031  RH  091%=      5-min Rain = 0
KMC4 080603Z 35005KT 05/03 A3046 RMK A01 T00450031  RH  091%=      5-min Rain = 0
KMC4 080604Z 34006KT 05/03 A3046 RMK A01 T00450031  RH  091%=      5-min Rain = 0
KMC4 080605Z 34005KT 04/03 A3047 RMK A01 T00440031  RH  091%=      5-min Rain = 0
KMC4 080606Z 34004KT 04/03 A3047 RMK A01 T00440031  RH  091%=      5-min Rain = 0
KMC4 080607Z 33005KT 04/03 A3047 RMK A01 T00440032  RH  092%=      5-min Rain = 0
KMC4 080608Z 33006KT 04/03 A3047 RMK A01 T00440032  RH  092%=      5-min Rain = 0
KMC4 080609Z 32007KT 05/03 A3047 RMK A01 T00450032  RH  092%=      5-min Rain = 0
KMC4 080610Z 32006KT 05/03 A3047 RMK A01 T00450032  RH  092%=      5-min Rain = 0
KMC4 080611Z 33006KT 04/03 A3047 RMK A01 T00440032  RH  092%=      5-min Rain = 0
KMC4 080612Z 33005KT 04/03 A3047 RMK A01 T00440033  RH  092%=      5-min Rain = 0
KMC4 080613Z 32006KT 05/03 A3047 RMK A01 T00450033  RH  092%=      5-min Rain = 0
KMC4 080614Z 33006KT 05/03 A3047 RMK A01 T00450033  RH  092%=      5-min Rain = 0
KMC4 080615Z 32007KT 05/03 A3047 RMK A01 T00450033  RH  092%=      5-min Rain = 0
KMC4 080616Z 32006KT 04/03 A3047 RMK A01 T00440032  RH  092%=      5-min Rain = 0
KMC4 080617Z 33005KT 04/03 A3047 RMK A01 T00440032  RH  092%=      5-min Rain = 0
KMC4 080618Z 33005KT 04/03 A3047 RMK A01 T00440033  RH  092%=      5-min Rain = 0
KMC4 080619Z 33004KT 05/03 A3047 RMK A01 T00450034  RH  093%=      5-min Rain = 0
KMC4 080620Z 33005KT 05/04 A3047 RMK A01 T00450035  RH  093%=      5-min Rain = 0
KMC4 080621Z 34006KT 05/04 A3047 RMK A01 T00450035  RH  093%=      5-min Rain = 0
KMC4 080622Z 33007KT 05/03 A3047 RMK A01 T00450034  RH  093%=      5-min Rain = 0.01
KMC4 080623Z 32006KT 05/03 A3047 RMK A01 T00450034  RH  093%=      5-min Rain = 0
KMC4 080624Z 32006KT 05/03 A3047 RMK A01 T00450034  RH  093%=      5-min Rain = 0
KMC4 080625Z 31005KT 05/03 A3047 RMK A01 T00450034  RH  093%=      5-min Rain = 0
KMC4 080626Z 31007KT 05/03 A3047 RMK A01 T00450034  RH  093%=      5-min Rain = 0
KMC4 080627Z 31006KT 04/03 A3046 RMK A01 T00440034  RH  093%=      5-min Rain = 0
KMC4 080628Z 32006KT 05/03 A3046 RMK A01 T00450034  RH  093%=      5-min Rain = 0
KMC4 080629Z 32005KT 05/04 A3046 RMK A01 T00450035  RH  093%=      5-min Rain = 0
KMC4 080630Z 32006KT 05/03 A3046 RMK A01 T00450034  RH  093%=      5-min Rain = 0
KMC4 080631Z 32006KT 04/03 A3046 RMK A01 T00440033  RH  093%=      5-min Rain = 0
KMC4 080632Z 32005KT 04/03 A3046 RMK A01 T00440033  RH  093%=      5-min Rain = 0
KMC4 080633Z 33006KT 04/03 A3046 RMK A01 T00440033  RH  093%=      5-min Rain = 0
KMC4 080634Z 32006KT 04/03 A3046 RMK A01 T00430033  RH  093%=      5-min Rain = 0
KMC4 080635Z 32005KT 04/03 A3046 RMK A01 T00440033  RH  093%=      5-min Rain = 0
KMC4 080636Z 32004KT 04/03 A3046 RMK A01 T00440033  RH  093%=      5-min Rain = 0
KMC4 080637Z 33005KT 04/03 A3046 RMK A01 T00440033  RH  093%=      5-min Rain = 0
KMC4 080638Z 32005KT 04/03 A3045 RMK A01 T00440033  RH  093%=      5-min Rain = 0
KMC4 080639Z 33005KT 04/03 A3045 RMK A01 T00440033  RH  093%=      5-min Rain = 0
KMC4 080640Z 32006KT 04/03 A3045 RMK A01 T00430033  RH  093%=      5-min Rain = 0
KMC4 080641Z 32006KT 04/03 A3045 RMK A01 T00440032  RH  092%=      5-min Rain = 0
KMC4 080642Z 32006KT 04/03 A3045 RMK A01 T00430031  RH  092%=      5-min Rain = 0
KMC4 080643Z 31005KT 04/03 A3045 RMK A01 T00440032  RH  092%=      5-min Rain = 0
KMC4 080644Z 31006KT 04/03 A3045 RMK A01 T00430031  RH  092%=      5-min Rain = 0
KMC4 080645Z 31004KT 04/03 A3045 RMK A01 T00440031  RH  091%=      5-min Rain = 0
KMC4 080646Z 30005KT 04/03 A3045 RMK A01 T00440031  RH  091%=      5-min Rain = 0
KMC4 080647Z 30006KT 04/03 A3045 RMK A01 T00440031  RH  092%=      5-min Rain = 0
KMC4 080648Z 31006KT 04/03 A3045 RMK A01 T00430031  RH  092%=      5-min Rain = 0
KMC4 080649Z 31005KT 04/03 A3045 RMK A01 T00440031  RH  092%=      5-min Rain = 0
KMC4 080650Z 30005KT 04/03 A3045 RMK A01 T00440032  RH  092%=      5-min Rain = 0
KMC4 080651Z 30005KT 04/03 A3045 RMK A01 T00440032  RH  092%=      5-min Rain = 0.01
KMC4 080652Z 30005KT 04/03 A3045 RMK A01 T00430032  RH  092%=      5-min Rain = 0
KMC4 080653Z 31005KT 04/03 A3045 RMK A01 T00440033  RH  093%=      5-min Rain = 0
KMC4 080654Z 31006KT 04/03 A3045 RMK A01 T00440033  RH  093%=      5-min Rain = 0
KMC4 080655Z 31005KT 04/03 A3045 RMK A01 T00430032  RH  092%=      5-min Rain = 0
KMC4 080656Z 31005KT 04/03 A3045 RMK A01 T00430032  RH  093%=      5-min Rain = 0
KMC4 080657Z 31005KT 04/03 A3045 RMK A01 T00440033  RH  093%=      5-min Rain = 0
KMC4 080658Z 31005KT 04/03 A3045 RMK A01 T00440033  RH  093%=      5-min Rain = 0
KMC4 080659Z 32005KT 04/03 A3045 RMK A01 T00440033  RH  093%=      5-min Rain = 0
KMC4 080700Z 31006KT 04/03 A3045 RMK A01 T00440033  RH  093%=      5-min Rain = 0
KMC4 080701Z 31006KT 04/03 A3045 RMK A01 T00440033  RH  093%=      5-min Rain = 0
KMC4 080702Z 31005KT 04/03 A3045 RMK A01 T00430033  RH  093%=      5-min Rain = 0
KMC4 080703Z 32005KT 04/03 A3045 RMK A01 T00430033  RH  093%=      5-min Rain = 0
KMC4 080704Z 32005KT 04/03 A3045 RMK A01 T00430033  RH  093%=      5-min Rain = 0
KMC4 080705Z 31004KT 04/03 A3045 RMK A01 T00430033  RH  093%=      5-min Rain = 0
KMC4 080706Z 32004KT 04/03 A3045 RMK A01 T00430033  RH  093%=      5-min Rain = 0
KMC4 080707Z 31005KT 04/03 A3045 RMK A01 T00430034  RH  093%=      5-min Rain = 0
KMC4 080708Z 31006KT 04/03 A3045 RMK A01 T00430034  RH  093%=      5-min Rain = 0
KMC4 080709Z 31006KT 04/03 A3045 RMK A01 T00440034  RH  093%=      5-min Rain = 0
KMC4 080710Z 31006KT 04/03 A3045 RMK A01 T00430033  RH  093%=      5-min Rain = 0
KMC4 080711Z 32006KT 04/03 A3045 RMK A01 T00430033  RH  093%=      5-min Rain = 0
KMC4 080712Z 32005KT 04/03 A3045 RMK A01 T00430033  RH  093%=      5-min Rain = 0
KMC4 080713Z 32004KT 04/03 A3045 RMK A01 T00430034  RH  094%=      5-min Rain = 0
KMC4 080714Z 32006KT 04/03 A3045 RMK A01 T00430034  RH  094%=      5-min Rain = 0
KMC4 080715Z 31006KT 04/03 A3045 RMK A01 T00430034  RH  094%=      5-min Rain = 0
KMC4 080716Z 33006KT 04/03 A3045 RMK A01 T00430034  RH  094%=      5-min Rain = 0
KMC4 080717Z 32007KT 04/03 A3045 RMK A01 T00430034  RH  094%=      5-min Rain = 0.01
KMC4 080718Z 32006KT 04/03 A3045 RMK A01 T00430034  RH  094%=      5-min Rain = 0
KMC4 080719Z 32005KT 04/03 A3045 RMK A01 T00420033  RH  094%=      5-min Rain = 0
KMC4 080720Z 32005KT 04/03 A3045 RMK A01 T00420033  RH  094%=      5-min Rain = 0
KMC4 080721Z 32005KT 04/03 A3045 RMK A01 T00420034  RH  094%=      5-min Rain = 0
KMC4 080722Z 32005KT 04/03 A3045 RMK A01 T00420034  RH  094%=      5-min Rain = 0
KMC4 080723Z 32005KT 04/03 A3045 RMK A01 T00420034  RH  094%=      5-min Rain = 0
KMC4 080724Z 32005KT 04/03 A3045 RMK A01 T00420034  RH  095%=      5-min Rain = 0
KMC4 080725Z 31004KT 04/03 A3045 RMK A01 T00420034  RH  095%=      5-min Rain = 0
KMC4 080726Z 30004KT 04/04 A3045 RMK A01 T00420035  RH  095%=      5-min Rain = 0
KMC4 080727Z 30006KT 04/04 A3045 RMK A01 T00420035  RH  095%=      5-min Rain = 0.01
KMC4 080728Z 30005KT 04/03 A3045 RMK A01 T00420034  RH  095%=      5-min Rain = 0
KMC4 080729Z 29003KT 04/03 A3045 RMK A01 T00420034  RH  095%=      5-min Rain = 0.01
KMC4 080730Z 30003KT 04/04 A3045 RMK A01 T00420035  RH  095%=      5-min Rain = 0
KMC4 080731Z 30004KT 04/04 A3045 RMK A01 T00420035  RH  095%=      5-min Rain = 0
KMC4 080732Z 30004KT 04/04 A3045 RMK A01 T00420035  RH  095%=      5-min Rain = 0
KMC4 080733Z 31004KT 04/04 A3045 RMK A01 T00420035  RH  096%=      5-min Rain = 0
KMC4 080734Z 31004KT 04/04 A3045 RMK A01 T00410035  RH  096%=      5-min Rain = 0
KMC4 080735Z 31004KT 04/04 A3045 RMK A01 T00410035  RH  096%=      5-min Rain = 0
KMC4 080736Z 32004KT 04/04 A3044 RMK A01 T00410035  RH  096%=      5-min Rain = 0.01
KMC4 080737Z 31003KT 04/04 A3044 RMK A01 T00410035  RH  096%=      5-min Rain = 0
KMC4 080738Z 32004KT 04/04 A3044 RMK A01 T00410035  RH  096%=      5-min Rain = 0
KMC4 080739Z 31004KT 04/04 A3045 RMK A01 T00410035  RH  096%=      5-min Rain = 0
KMC4 080740Z 31004KT 04/04 A3045 RMK A01 T00410035  RH  096%=      5-min Rain = 0
KMC4 080741Z 30004KT 04/04 A3045 RMK A01 T00410035  RH  096%=      5-min Rain = 0
KMC4 080742Z 30004KT 04/04 A3045 RMK A01 T00410035  RH  096%=      5-min Rain = 0
KMC4 080743Z 30004KT 04/04 A3045 RMK A01 T00410035  RH  096%=      5-min Rain = 0
KMC4 080744Z 30004KT 04/04 A3045 RMK A01 T00410035  RH  096%=      5-min Rain = 0
KMC4 080745Z 30004KT 04/04 A3045 RMK A01 T00410035  RH  096%=      5-min Rain = 0
KMC4 080746Z 30005KT 04/04 A3045 RMK A01 T00410035  RH  096%=      5-min Rain = 0
KMC4 080747Z 30004KT 04/04 A3045 RMK A01 T00410035  RH  096%=      5-min Rain = 0
KMC4 080748Z 30004KT 04/04 A3045 RMK A01 T00410036  RH  096%=      5-min Rain = 0
KMC4 080749Z 30004KT 04/04 A3045 RMK A01 T00420036  RH  096%=      5-min Rain = 0
KMC4 080750Z 31003KT 04/04 A3045 RMK A01 T00420036  RH  096%=      5-min Rain = 0
KMC4 080751Z 32003KT 04/04 A3045 RMK A01 T00420037  RH  096%=      5-min Rain = 0
KMC4 080752Z 31003KT 04/04 A3045 RMK A01 T00420037  RH  096%=      5-min Rain = 0
KMC4 080753Z 31004KT 04/04 A3045 RMK A01 T00420037  RH  096%=      5-min Rain = 0
KMC4 080754Z 31005KT 04/04 A3045 RMK A01 T00430037  RH  096%=      5-min Rain = 0
KMC4 080755Z 31006KT 04/04 A3045 RMK A01 T00420036  RH  096%=      5-min Rain = 0
KMC4 080756Z 30004KT 04/04 A3045 RMK A01 T00420036  RH  096%=      5-min Rain = 0
KMC4 080757Z 30004KT 04/04 A3045 RMK A01 T00420036  RH  095%=      5-min Rain = 0
KMC4 080758Z 31005KT 04/04 A3045 RMK A01 T00420035  RH  095%=      5-min Rain = 0
KMC4 080759Z 31005KT 04/04 A3045 RMK A01 T00420035  RH  095%=      5-min Rain = 0
KMC4 080800Z 31005KT 04/04 A3045 RMK A01 T00420035  RH  095%=      5-min Rain = 0
KMC4 080801Z 32004KT 04/04 A3045 RMK A01 T00420035  RH  095%=      5-min Rain = 0
KMC4 080802Z 32004KT 04/04 A3044 RMK A01 T00430035  RH  095%=      5-min Rain = 0
KMC4 080803Z 31004KT 04/04 A3044 RMK A01 T00430036  RH  095%=      5-min Rain = 0
KMC4 080804Z 31003KT 04/04 A3044 RMK A01 T00430036  RH  095%=      5-min Rain = 0
KMC4 080805Z 31005KT 04/04 A3044 RMK A01 T00440037  RH  095%=      5-min Rain = 0
KMC4 080806Z 31004KT 04/04 A3044 RMK A01 T00440036  RH  095%=      5-min Rain = 0
KMC4 080807Z 33005KT 04/04 A3044 RMK A01 T00440036  RH  095%=      5-min Rain = 0
KMC4 080808Z 32004KT 04/04 A3044 RMK A01 T00430035  RH  095%=      5-min Rain = 0
KMC4 080809Z 31004KT 04/04 A3044 RMK A01 T00440036  RH  095%=      5-min Rain = 0
KMC4 080810Z 31004KT 04/04 A3044 RMK A01 T00440036  RH  095%=      5-min Rain = 0
KMC4 080811Z 32005KT 04/04 A3044 RMK A01 T00440036  RH  095%=      5-min Rain = 0
KMC4 080812Z 32005KT 04/04 A3044 RMK A01 T00440036  RH  094%=      5-min Rain = 0
KMC4 080813Z 32006KT 04/04 A3044 RMK A01 T00440035  RH  094%=      5-min Rain = 0
KMC4 080814Z 32005KT 04/04 A3044 RMK A01 T00440035  RH  094%=      5-min Rain = 0
KMC4 080815Z 32004KT 04/04 A3044 RMK A01 T00440035  RH  094%=      5-min Rain = 0
KMC4 080816Z 31005KT 04/04 A3044 RMK A01 T00440036  RH  094%=      5-min Rain = 0
KMC4 080817Z 31006KT 04/04 A3044 RMK A01 T00440036  RH  094%=      5-min Rain = 0
KMC4 080818Z 31006KT 04/04 A3044 RMK A01 T00440035  RH  094%=      5-min Rain = 0
KMC4 080819Z 31006KT 04/04 A3044 RMK A01 T00440035  RH  094%=      5-min Rain = 0
KMC4 080820Z 31005KT 04/03 A3044 RMK A01 T00440034  RH  094%=      5-min Rain = 0
KMC4 080821Z 31006KT 04/04 A3044 RMK A01 T00440035  RH  094%=      5-min Rain = 0
KMC4 080822Z 31005KT 04/04 A3044 RMK A01 T00440035  RH  094%=      5-min Rain = 0
KMC4 080823Z 31005KT 04/04 A3044 RMK A01 T00430035  RH  094%=      5-min Rain = 0
KMC4 080824Z 31004KT 04/04 A3044 RMK A01 T00440035  RH  094%=      5-min Rain = 0
KMC4 080825Z 31004KT 04/04 A3044 RMK A01 T00440035  RH  094%=      5-min Rain = 0
KMC4 080826Z 31005KT 04/04 A3044 RMK A01 T00440035  RH  094%=      5-min Rain = 0
KMC4 080827Z 31005KT 04/04 A3044 RMK A01 T00430035  RH  094%=      5-min Rain = 0
KMC4 080828Z 31005KT 04/04 A3044 RMK A01 T00440035  RH  094%=      5-min Rain = 0
KMC4 080829Z 31006KT 04/04 A3044 RMK A01 T00430035  RH  094%=      5-min Rain = 0
KMC4 080830Z 31007KT 04/04 A3044 RMK A01 T00430035  RH  094%=      5-min Rain = 0
KMC4 080831Z 31007KT 04/03 A3044 RMK A01 T00430034  RH  094%=      5-min Rain = 0
KMC4 080832Z 31006KT 04/04 A3044 RMK A01 T00430035  RH  094%=      5-min Rain = 0
KMC4 080833Z 31007KT 04/03 A3044 RMK A01 T00430034  RH  094%=      5-min Rain = 0
KMC4 080834Z 31006KT 04/03 A3044 RMK A01 T00430034  RH  094%=      5-min Rain = 0
KMC4 080835Z 31007KT 04/03 A3044 RMK A01 T00430034  RH  094%=      5-min Rain = 0
KMC4 080836Z 31005KT 04/03 A3044 RMK A01 T00430034  RH  094%=      5-min Rain = 0
KMC4 080837Z 30005KT 04/03 A3044 RMK A01 T00430034  RH  094%=      5-min Rain = 0
KMC4 080838Z 30004KT 04/03 A3044 RMK A01 T00430034  RH  094%=      5-min Rain = 0
KMC4 080839Z 31006KT 04/03 A3044 RMK A01 T00430034  RH  094%=      5-min Rain = 0
KMC4 080840Z 31006KT 04/03 A3043 RMK A01 T00430034  RH  094%=      5-min Rain = 0
KMC4 080841Z 31005KT 04/03 A3043 RMK A01 T00430034  RH  094%=      5-min Rain = 0
KMC4 080842Z 31005KT 04/03 A3043 RMK A01 T00430034  RH  094%=      5-min Rain = 0
KMC4 080843Z 30004KT 04/03 A3043 RMK A01 T00430034  RH  094%=      5-min Rain = 0
KMC4 080844Z 29004KT 04/03 A3043 RMK A01 T00430034  RH  094%=      5-min Rain = 0
KMC4 080845Z 30005KT 04/03 A3043 RMK A01 T00430034  RH  094%=      5-min Rain = 0
KMC4 080846Z 30005KT 04/04 A3043 RMK A01 T00430035  RH  094%=      5-min Rain = 0
KMC4 080847Z 30004KT 04/04 A3043 RMK A01 T00430035  RH  095%=      5-min Rain = 0
KMC4 080848Z 30005KT 04/04 A3043 RMK A01 T00430035  RH  095%=      5-min Rain = 0
KMC4 080849Z 30005KT 04/04 A3043 RMK A01 T00430035  RH  095%=      5-min Rain = 0
KMC4 080850Z 30005KT 04/04 A3043 RMK A01 T00430035  RH  095%=      5-min Rain = 0
KMC4 080851Z 30005KT 04/03 A3043 RMK A01 T00430034  RH  094%=      5-min Rain = 0
KMC4 080852Z 30005KT 04/04 A3043 RMK A01 T00430035  RH  095%=      5-min Rain = 0
KMC4 080853Z 31006KT 04/03 A3043 RMK A01 T00430034  RH  095%=      5-min Rain = 0
KMC4 080854Z 30005KT 04/04 A3043 RMK A01 T00430035  RH  094%=      5-min Rain = 0
KMC4 080855Z 30005KT 04/04 A3043 RMK A01 T00430035  RH  095%=      5-min Rain = 0
KMC4 080856Z 31005KT 04/04 A3043 RMK A01 T00430035  RH  095%=      5-min Rain = 0
KMC4 080857Z 31005KT 04/04 A3043 RMK A01 T00430035  RH  095%=      5-min Rain = 0
KMC4 080858Z 30006KT 04/04 A3043 RMK A01 T00430035  RH  095%=      5-min Rain = 0
KMC4 080859Z 30005KT 04/04 A3043 RMK A01 T00430035  RH  095%=      5-min Rain = 0
KMC4 080900Z 30006KT 04/04 A3043 RMK A01 T00430035  RH  095%=      5-min Rain = 0
KMC4 080901Z 30005KT 04/04 A3043 RMK A01 T00430035  RH  095%=      5-min Rain = 0
KMC4 080902Z 31005KT 04/04 A3043 RMK A01 T00430035  RH  095%=      5-min Rain = 0
KMC4 080903Z 31004KT 04/04 A3043 RMK A01 T00430035  RH  095%=      5-min Rain = 0
KMC4 080904Z 31005KT 04/04 A3043 RMK A01 T00430036  RH  095%=      5-min Rain = 0
KMC4 080905Z 31004KT 04/04 A3043 RMK A01 T00430036  RH  095%=      5-min Rain = 0
KMC4 080906Z 31005KT 04/04 A3043 RMK A01 T00430036  RH  095%=      5-min Rain = 0
KMC4 080907Z 31005KT 04/04 A3043 RMK A01 T00430036  RH  095%=      5-min Rain = 0
KMC4 080908Z 31004KT 04/04 A3043 RMK A01 T00430036  RH  095%=      5-min Rain = 0
KMC4 080909Z 31005KT 04/04 A3043 RMK A01 T00430036  RH  095%=      5-min Rain = 0
KMC4 080910Z 31005KT 04/04 A3043 RMK A01 T00430035  RH  095%=      5-min Rain = 0
KMC4 080911Z 31005KT 04/04 A3043 RMK A01 T00430035  RH  095%=      5-min Rain = 0
KMC4 080912Z 32005KT 04/04 A3043 RMK A01 T00430035  RH  095%=      5-min Rain = 0
KMC4 080913Z 31005KT 04/04 A3043 RMK A01 T00430035  RH  095%=      5-min Rain = 0
KMC4 080914Z 31004KT 04/04 A3043 RMK A01 T00430035  RH  095%=      5-min Rain = 0
KMC4 080915Z 31003KT 04/04 A3043 RMK A01 T00440036  RH  095%=      5-min Rain = 0
KMC4 080916Z 31004KT 04/04 A3043 RMK A01 T00440037  RH  095%=      5-min Rain = 0
KMC4 080917Z 31005KT 04/04 A3043 RMK A01 T00440037  RH  095%=      5-min Rain = 0
KMC4 080918Z 31005KT 05/04 A3043 RMK A01 T00450037  RH  095%=      5-min Rain = 0
KMC4 080919Z 31003KT 05/04 A3043 RMK A01 T00450037  RH  095%=      5-min Rain = 0
KMC4 080920Z 31004KT 05/04 A3043 RMK A01 T00450037  RH  095%=      5-min Rain = 0
KMC4 080921Z 31004KT 05/04 A3043 RMK A01 T00450037  RH  095%=      5-min Rain = 0
KMC4 080922Z 31004KT 04/04 A3043 RMK A01 T00440037  RH  095%=      5-min Rain = 0
KMC4 080923Z 30003KT 04/04 A3043 RMK A01 T00440037  RH  095%=      5-min Rain = 0
KMC4 080924Z 31004KT 05/04 A3043 RMK A01 T00450037  RH  095%=      5-min Rain = 0
KMC4 080925Z 31004KT 04/04 A3043 RMK A01 T00440037  RH  095%=      5-min Rain = 0
KMC4 080926Z 31004KT 05/04 A3043 RMK A01 T00450037  RH  095%=      5-min Rain = 0
KMC4 080927Z 32004KT 05/04 A3043 RMK A01 T00450037  RH  095%=      5-min Rain = 0
KMC4 080928Z 33004KT 05/04 A3043 RMK A01 T00450038  RH  095%=      5-min Rain = 0
KMC4 080929Z 32005KT 05/04 A3043 RMK A01 T00450038  RH  095%=      5-min Rain = 0
KMC4 080930Z 33005KT 05/04 A3043 RMK A01 T00450037  RH  094%=      5-min Rain = 0
KMC4 080931Z 33005KT 05/04 A3043 RMK A01 T00450037  RH  094%=      5-min Rain = 0
KMC4 080932Z 34005KT 05/04 A3043 RMK A01 T00450036  RH  094%=      5-min Rain = 0
KMC4 080933Z 34005KT 05/04 A3043 RMK A01 T00450036  RH  094%=      5-min Rain = 0
KMC4 080934Z 34004KT 05/04 A3043 RMK A01 T00450036  RH  094%=      5-min Rain = 0
KMC4 080935Z 33006KT 05/04 A3043 RMK A01 T00450035  RH  093%=      5-min Rain = 0
KMC4 080936Z 34006KT 05/03 A3043 RMK A01 T00450034  RH  092%=      5-min Rain = 0
KMC4 080937Z 35005KT 05/03 A3043 RMK A01 T00450033  RH  092%=      5-min Rain = 0
KMC4 080938Z 34006KT 05/03 A3043 RMK A01 T00450033  RH  092%=      5-min Rain = 0
KMC4 080939Z 35005KT 05/03 A3043 RMK A01 T00450032  RH  092%=      5-min Rain = 0
KMC4 080940Z 35005KT 05/03 A3043 RMK A01 T00450032  RH  092%=      5-min Rain = 0
KMC4 080941Z 34004KT 05/03 A3042 RMK A01 T00450032  RH  091%=      5-min Rain = 0
KMC4 080942Z 35004KT 05/03 A3042 RMK A01 T00450032  RH  091%=      5-min Rain = 0
KMC4 080943Z 35004KT 05/03 A3042 RMK A01 T00450032  RH  091%=      5-min Rain = 0
KMC4 080944Z 34003KT 05/03 A3042 RMK A01 T00450032  RH  092%=      5-min Rain = 0
KMC4 080945Z 34004KT 05/03 A3042 RMK A01 T00450033  RH  092%=      5-min Rain = 0
KMC4 080946Z 34004KT 05/03 A3042 RMK A01 T00460034  RH  092%=      5-min Rain = 0
KMC4 080947Z 35004KT 05/03 A3042 RMK A01 T00450034  RH  092%=      5-min Rain = 0
KMC4 080948Z 35004KT 05/03 A3042 RMK A01 T00450033  RH  092%=      5-min Rain = 0
KMC4 080949Z 34003KT 05/03 A3042 RMK A01 T00450033  RH  092%=      5-min Rain = 0
KMC4 080950Z 34003KT 05/03 A3042 RMK A01 T00450033  RH  092%=      5-min Rain = 0
KMC4 080951Z 34005KT 05/03 A3042 RMK A01 T00450034  RH  092%=      5-min Rain = 0
KMC4 080952Z 34005KT 05/03 A3042 RMK A01 T00450033  RH  092%=      5-min Rain = 0
KMC4 080953Z 34005KT 05/03 A3042 RMK A01 T00450033  RH  092%=      5-min Rain = 0
KMC4 080954Z 33005KT 05/03 A3042 RMK A01 T00460033  RH  091%=      5-min Rain = 0
KMC4 080955Z 34005KT 05/03 A3042 RMK A01 T00450033  RH  092%=      5-min Rain = 0
KMC4 080956Z 33005KT 05/03 A3042 RMK A01 T00460033  RH  092%=      5-min Rain = 0
KMC4 080957Z 32005KT 05/03 A3042 RMK A01 T00450034  RH  092%=      5-min Rain = 0
KMC4 080958Z 33006KT 05/03 A3042 RMK A01 T00460034  RH  093%=      5-min Rain = 0
KMC4 080959Z 32005KT 05/03 A3042 RMK A01 T00460034  RH  092%=      5-min Rain = 0
KMC4 081000Z 33005KT 05/03 A3042 RMK A01 T00450034  RH  092%=      5-min Rain = 0
KMC4 081001Z 33005KT 05/03 A3042 RMK A01 T00450034  RH  092%=      5-min Rain = 0
KMC4 081002Z 34005KT 05/03 A3042 RMK A01 T00450033  RH  092%=      5-min Rain = 0
KMC4 081003Z 33004KT 05/03 A3042 RMK A01 T00450034  RH  092%=      5-min Rain = 0
KMC4 081004Z 32004KT 05/04 A3042 RMK A01 T00450035  RH  093%=      5-min Rain = 0
KMC4 081005Z 33004KT 05/04 A3042 RMK A01 T00460035  RH  093%=      5-min Rain = 0
KMC4 081006Z 33004KT 05/04 A3042 RMK A01 T00450035  RH  093%=      5-min Rain = 0
KMC4 081007Z 33005KT 05/04 A3042 RMK A01 T00460036  RH  093%=      5-min Rain = 0
KMC4 081008Z 32005KT 05/04 A3042 RMK A01 T00460036  RH  094%=      5-min Rain = 0
KMC4 081009Z 32004KT 05/04 A3042 RMK A01 T00450036  RH  094%=      5-min Rain = 0
KMC4 081010Z 33004KT 05/04 A3042 RMK A01 T00450036  RH  094%=      5-min Rain = 0
KMC4 081011Z 32004KT 05/04 A3042 RMK A01 T00450036  RH  094%=      5-min Rain = 0
KMC4 081012Z 32005KT 05/04 A3042 RMK A01 T00450036  RH  094%=      5-min Rain = 0
KMC4 081013Z 33006KT 05/04 A3042 RMK A01 T00450036  RH  094%=      5-min Rain = 0
KMC4 081014Z 33005KT 05/04 A3042 RMK A01 T00450037  RH  094%=      5-min Rain = 0
KMC4 081015Z 33004KT 05/04 A3042 RMK A01 T00450036  RH  094%=      5-min Rain = 0
KMC4 081016Z 32004KT 05/04 A3042 RMK A01 T00450036  RH  094%=      5-min Rain = 0
KMC4 081017Z 32004KT 05/04 A3042 RMK A01 T00450036  RH  094%=      5-min Rain = 0
KMC4 081018Z 33003KT 05/04 A3042 RMK A01 T00450036  RH  094%=      5-min Rain = 0
KMC4 081019Z 33004KT 04/04 A3042 RMK A01 T00440037  RH  095%=      5-min Rain = 0
KMC4 081020Z 32004KT 04/04 A3042 RMK A01 T00440037  RH  095%=      5-min Rain = 0
KMC4 081021Z 32003KT 04/04 A3042 RMK A01 T00440037  RH  095%=      5-min Rain = 0
KMC4 081022Z 32004KT 04/04 A3042 RMK A01 T00440037  RH  095%=      5-min Rain = 0
KMC4 081023Z 33005KT 04/04 A3042 RMK A01 T00440037  RH  095%=      5-min Rain = 0
KMC4 081024Z 33005KT 05/04 A3042 RMK A01 T00450036  RH  095%=      5-min Rain = 0
KMC4 081025Z 33004KT 05/04 A3042 RMK A01 T00450037  RH  095%=      5-min Rain = 0
KMC4 081026Z 32004KT 05/04 A3042 RMK A01 T00450037  RH  095%=      5-min Rain = 0
KMC4 081027Z 33004KT 05/04 A3042 RMK A01 T00450037  RH  095%=      5-min Rain = 0
KMC4 081028Z 33004KT 05/04 A3042 RMK A01 T00450037  RH  095%=      5-min Rain = 0
KMC4 081029Z 32004KT 05/04 A3042 RMK A01 T00450037  RH  095%=      5-min Rain = 0
KMC4 081030Z 33005KT 04/04 A3042 RMK A01 T00440036  RH  095%=      5-min Rain = 0
KMC4 081031Z 33005KT 04/04 A3042 RMK A01 T00440036  RH  095%=      5-min Rain = 0
KMC4 081032Z 33005KT 04/04 A3042 RMK A01 T00440036  RH  095%=      5-min Rain = 0
KMC4 081033Z 32004KT 04/04 A3042 RMK A01 T00440036  RH  094%=      5-min Rain = 0
KMC4 081034Z 32004KT 04/04 A3042 RMK A01 T00440036  RH  095%=      5-min Rain = 0
KMC4 081035Z 31003KT 04/04 A3042 RMK A01 T00440036  RH  095%=      5-min Rain = 0
KMC4 081036Z 32003KT 04/04 A3042 RMK A01 T00440037  RH  095%=      5-min Rain = 0
KMC4 081037Z 32004KT 04/04 A3042 RMK A01 T00440037  RH  095%=      5-min Rain = 0
KMC4 081038Z 32004KT 04/04 A3042 RMK A01 T00440037  RH  095%=      5-min Rain = 0
KMC4 081039Z 32004KT 04/04 A3042 RMK A01 T00440037  RH  095%=      5-min Rain = 0
KMC4 081040Z 32004KT 04/04 A3042 RMK A01 T00440037  RH  095%=      5-min Rain = 0
KMC4 081041Z 32004KT 04/04 A3042 RMK A01 T00440037  RH  095%=      5-min Rain = 0
KMC4 081042Z 32004KT 04/04 A3042 RMK A01 T00440037  RH  095%=      5-min Rain = 0
KMC4 081043Z 32005KT 04/04 A3042 RMK A01 T00440038  RH  096%=      5-min Rain = 0.01
KMC4 081044Z 31003KT 04/04 A3042 RMK A01 T00440038  RH  096%=      5-min Rain = 0
KMC4 081045Z 32004KT 04/04 A3042 RMK A01 T00440038  RH  096%=      5-min Rain = 0
KMC4 081046Z 31004KT 04/04 A3042 RMK A01 T00440039  RH  096%=      5-min Rain = 0
KMC4 081047Z 32004KT 05/04 A3042 RMK A01 T00450039  RH  096%=      5-min Rain = 0
KMC4 081048Z 31003KT 05/04 A3042 RMK A01 T00450039  RH  096%=      5-min Rain = 0
KMC4 081049Z 31004KT 05/04 A3042 RMK A01 T00450039  RH  096%=      5-min Rain = 0
KMC4 081050Z 31003KT 05/04 A3042 RMK A01 T00450040  RH  097%=      5-min Rain = 0
KMC4 081051Z 31003KT 05/04 A3042 RMK A01 T00450040  RH  097%=      5-min Rain = 0
KMC4 081052Z 31004KT 05/04 A3042 RMK A01 T00450040  RH  097%=      5-min Rain = 0
KMC4 081053Z 31004KT 04/04 A3042 RMK A01 T00440040  RH  097%=      5-min Rain = 0
KMC4 081054Z 31004KT 04/04 A3042 RMK A01 T00440040  RH  097%=      5-min Rain = 0
KMC4 081055Z 31003KT 04/04 A3042 RMK A01 T00440040  RH  097%=      5-min Rain = 0
KMC4 081056Z 31004KT 04/04 A3042 RMK A01 T00440040  RH  097%=      5-min Rain = 0
KMC4 081057Z 31004KT 04/04 A3042 RMK A01 T00440040  RH  097%=      5-min Rain = 0
KMC4 081058Z 31004KT 04/04 A3042 RMK A01 T00440040  RH  097%=      5-min Rain = 0
KMC4 081059Z 31004KT 04/04 A3042 RMK A01 T00440039  RH  097%=      5-min Rain = 0
KMC4 081100Z 31004KT 04/04 A3042 RMK A01 T00440040  RH  097%=      5-min Rain = 0
KMC4 081101Z 31004KT 04/04 A3042 RMK A01 T00440039  RH  097%=      5-min Rain = 0
KMC4 081102Z 31003KT 04/04 A3042 RMK A01 T00440040  RH  097%=      5-min Rain = 0
KMC4 081103Z 31003KT 04/04 A3042 RMK A01 T00440039  RH  097%=      5-min Rain = 0
KMC4 081104Z 31003KT 04/04 A3042 RMK A01 T00440040  RH  097%=      5-min Rain = 0
KMC4 081105Z 31003KT 04/04 A3042 RMK A01 T00440040  RH  097%=      5-min Rain = 0
KMC4 081106Z 32002KT 04/04 A3042 RMK A01 T00440040  RH  097%=      5-min Rain = 0
KMC4 081107Z 32003KT 04/04 A3042 RMK A01 T00440040  RH  097%=      5-min Rain = 0
KMC4 081108Z 33002KT 04/04 A3042 RMK A01 T00440041  RH  097%=      5-min Rain = 0
KMC4 081109Z 31004KT 05/04 A3042 RMK A01 T00450041  RH  097%=      5-min Rain = 0
KMC4 081110Z 31004KT 04/04 A3042 RMK A01 T00440040  RH  097%=      5-min Rain = 0
KMC4 081111Z 31003KT 04/04 A3042 RMK A01 T00440040  RH  098%=      5-min Rain = 0
KMC4 081112Z 30004KT 04/04 A3042 RMK A01 T00440040  RH  098%=      5-min Rain = 0
KMC4 081113Z 30004KT 04/04 A3042 RMK A01 T00430040  RH  097%=      5-min Rain = 0
KMC4 081114Z 31003KT 04/04 A3042 RMK A01 T00430039  RH  098%=      5-min Rain = 0
KMC4 081115Z 31003KT 04/04 A3042 RMK A01 T00430040  RH  098%=      5-min Rain = 0
KMC4 081116Z 31003KT 04/04 A3042 RMK A01 T00440040  RH  098%=      5-min Rain = 0
KMC4 081117Z 31003KT 04/04 A3042 RMK A01 T00440041  RH  098%=      5-min Rain = 0
KMC4 081118Z 30003KT 04/04 A3042 RMK A01 T00440041  RH  098%=      5-min Rain = 0
KMC4 081119Z 30003KT 04/04 A3042 RMK A01 T00440041  RH  098%=      5-min Rain = 0
KMC4 081120Z 31003KT 04/04 A3042 RMK A01 T00430040  RH  098%=      5-min Rain = 0
KMC4 081121Z 30004KT 04/04 A3042 RMK A01 T00440040  RH  098%=      5-min Rain = 0
KMC4 081122Z 30004KT 04/04 A3042 RMK A01 T00440040  RH  098%=      5-min Rain = 0
KMC4 081123Z 30004KT 04/04 A3042 RMK A01 T00440040  RH  098%=      5-min Rain = 0
KMC4 081124Z 30004KT 04/04 A3042 RMK A01 T00440041  RH  098%=      5-min Rain = 0
KMC4 081125Z 30003KT 04/04 A3042 RMK A01 T00440041  RH  098%=      5-min Rain = 0
KMC4 081126Z 30004KT 04/04 A3042 RMK A01 T00430040  RH  098%=      5-min Rain = 0
KMC4 081127Z 30005KT 04/04 A3042 RMK A01 T00440041  RH  098%=      5-min Rain = 0
KMC4 081128Z 30004KT 04/04 A3042 RMK A01 T00440040  RH  098%=      5-min Rain = 0
KMC4 081129Z 31004KT 04/04 A3042 RMK A01 T00440040  RH  098%=      5-min Rain = 0
KMC4 081130Z 31003KT 04/04 A3042 RMK A01 T00440041  RH  098%=      5-min Rain = 0
KMC4 081131Z 30004KT 04/04 A3042 RMK A01 T00440040  RH  098%=      5-min Rain = 0
KMC4 081132Z 30004KT 04/04 A3042 RMK A01 T00430040  RH  098%=      5-min Rain = 0
KMC4 081133Z 31004KT 04/04 A3042 RMK A01 T00440040  RH  098%=      5-min Rain = 0
KMC4 081134Z 30004KT 04/04 A3042 RMK A01 T00440041  RH  098%=      5-min Rain = 0
KMC4 081135Z 31004KT 04/04 A3042 RMK A01 T00440041  RH  098%=      5-min Rain = 0
KMC4 081136Z 30004KT 04/04 A3042 RMK A01 T00440041  RH  098%=      5-min Rain = 0
KMC4 081137Z 30004KT 04/04 A3042 RMK A01 T00440041  RH  098%=      5-min Rain = 0
KMC4 081138Z 30003KT 04/04 A3042 RMK A01 T00440041  RH  098%=      5-min Rain = 0
KMC4 081139Z 31004KT 04/04 A3042 RMK A01 T00440042  RH  098%=      5-min Rain = 0
KMC4 081140Z 31004KT 04/04 A3042 RMK A01 T00440042  RH  098%=      5-min Rain = 0
KMC4 081141Z 31003KT 05/04 A3042 RMK A01 T00450042  RH  098%=      5-min Rain = 0
KMC4 081142Z 30002KT 04/04 A3042 RMK A01 T00440041  RH  098%=      5-min Rain = 0
KMC4 081143Z 30003KT 04/04 A3042 RMK A01 T00440042  RH  098%=      5-min Rain = 0
KMC4 081144Z 31004KT 05/04 A3042 RMK A01 T00450042  RH  098%=      5-min Rain = 0
KMC4 081145Z 30004KT 05/04 A3042 RMK A01 T00450042  RH  098%=      5-min Rain = 0
KMC4 081146Z 30004KT 04/04 A3042 RMK A01 T00440041  RH  098%=      5-min Rain = 0
KMC4 081147Z 30004KT 04/04 A3042 RMK A01 T00440041  RH  098%=      5-min Rain = 0
KMC4 081148Z 30005KT 04/04 A3042 RMK A01 T00440041  RH  098%=      5-min Rain = 0
KMC4 081149Z 30005KT 04/04 A3043 RMK A01 T00440041  RH  098%=      5-min Rain = 0
KMC4 081150Z 30005KT 04/04 A3043 RMK A01 T00440041  RH  098%=      5-min Rain = 0
KMC4 081151Z 31004KT 04/04 A3043 RMK A01 T00440041  RH  098%=      5-min Rain = 0
KMC4 081152Z 30004KT 04/04 A3043 RMK A01 T00440041  RH  098%=      5-min Rain = 0
KMC4 081153Z 30004KT 04/04 A3043 RMK A01 T00440042  RH  098%=      5-min Rain = 0
KMC4 081154Z 30004KT 05/04 A3043 RMK A01 T00450042  RH  098%=      5-min Rain = 0
KMC4 081155Z 30005KT 05/04 A3043 RMK A01 T00450042  RH  098%=      5-min Rain = 0
KMC4 081156Z 30004KT 05/04 A3043 RMK A01 T00450042  RH  098%=      5-min Rain = 0
KMC4 081157Z 30004KT 05/04 A3043 RMK A01 T00450042  RH  098%=      5-min Rain = 0
KMC4 081158Z 30004KT 05/04 A3043 RMK A01 T00450042  RH  098%=      5-min Rain = 0
KMC4 081159Z 29003KT 04/04 A3043 RMK A01 T00440041  RH  098%=      5-min Rain = 0
KMC4 081200Z 29004KT 05/04 A3043 RMK A01 T00450042  RH  098%=      5-min Rain = 0
KMC4 081201Z 29004KT 05/04 A3043 RMK A01 T00450042  RH  098%=      5-min Rain = 0
KMC4 081202Z 29004KT 05/04 A3044 RMK A01 T00450042  RH  098%=      5-min Rain = 0
KMC4 081203Z 28004KT 05/04 A3044 RMK A01 T00450042  RH  098%=      5-min Rain = 0
KMC4 081204Z 29004KT 05/04 A3044 RMK A01 T00450042  RH  098%=      5-min Rain = 0
KMC4 081205Z 29004KT 05/04 A3044 RMK A01 T00460042  RH  098%=      5-min Rain = 0
KMC4 081206Z 29005KT 05/04 A3044 RMK A01 T00450042  RH  098%=      5-min Rain = 0
KMC4 081207Z 28004KT 05/04 A3044 RMK A01 T00460042  RH  098%=      5-min Rain = 0
KMC4 081208Z 29004KT 05/04 A3043 RMK A01 T00460042  RH  098%=      5-min Rain = 0
KMC4 081209Z 29004KT 05/04 A3043 RMK A01 T00460042  RH  098%=      5-min Rain = 0
KMC4 081210Z 29004KT 05/04 A3043 RMK A01 T00460042  RH  098%=      5-min Rain = 0
KMC4 081211Z 28005KT 05/04 A3043 RMK A01 T00460042  RH  098%=      5-min Rain = 0
KMC4 081212Z 29005KT 05/04 A3043 RMK A01 T00460042  RH  098%=      5-min Rain = 0
KMC4 081213Z 30005KT 05/04 A3043 RMK A01 T00460042  RH  097%=      5-min Rain = 0
KMC4 081214Z 30005KT 05/04 A3043 RMK A01 T00460042  RH  097%=      5-min Rain = 0
KMC4 081215Z 29004KT 05/04 A3043 RMK A01 T00460042  RH  097%=      5-min Rain = 0
KMC4 081216Z 30005KT 05/04 A3043 RMK A01 T00460042  RH  097%=      5-min Rain = 0
KMC4 081217Z 30006KT 05/04 A3043 RMK A01 T00460041  RH  097%=      5-min Rain = 0
KMC4 081218Z 30006KT 05/04 A3043 RMK A01 T00450041  RH  097%=      5-min Rain = 0
KMC4 081219Z 30005KT 05/04 A3043 RMK A01 T00450040  RH  097%=      5-min Rain = 0
KMC4 081220Z 30006KT 05/04 A3043 RMK A01 T00450040  RH  097%=      5-min Rain = 0
KMC4 081221Z 30007KT 05/04 A3043 RMK A01 T00450040  RH  097%=      5-min Rain = 0
KMC4 081222Z 30006KT 05/04 A3043 RMK A01 T00450040  RH  096%=      5-min Rain = 0
KMC4 081223Z 30006KT 05/04 A3043 RMK A01 T00460040  RH  096%=      5-min Rain = 0
KMC4 081224Z 30006KT 05/04 A3043 RMK A01 T00450040  RH  096%=      5-min Rain = 0
KMC4 081225Z 30006KT 05/04 A3043 RMK A01 T00450040  RH  096%=      5-min Rain = 0
KMC4 081226Z 30005KT 05/04 A3043 RMK A01 T00450040  RH  096%=      5-min Rain = 0
KMC4 081227Z 29005KT 05/04 A3044 RMK A01 T00450040  RH  096%=      5-min Rain = 0
KMC4 081228Z 30005KT 05/04 A3044 RMK A01 T00460041  RH  096%=      5-min Rain = 0
KMC4 081229Z 31005KT 05/04 A3044 RMK A01 T00460041  RH  097%=      5-min Rain = 0
KMC4 081230Z 30005KT 05/04 A3044 RMK A01 T00460041  RH  097%=      5-min Rain = 0
KMC4 081231Z 30005KT 05/04 A3044 RMK A01 T00460041  RH  097%=      5-min Rain = 0
KMC4 081232Z 30005KT 05/04 A3044 RMK A01 T00460041  RH  097%=      5-min Rain = 0
KMC4 081233Z 30004KT 05/04 A3044 RMK A01 T00460041  RH  097%=      5-min Rain = 0
KMC4 081234Z 30004KT 05/04 A3044 RMK A01 T00460041  RH  097%=      5-min Rain = 0
KMC4 081235Z 30005KT 05/04 A3044 RMK A01 T00460041  RH  097%=      5-min Rain = 0
KMC4 081236Z 31005KT 05/04 A3044 RMK A01 T00460041  RH  097%=      5-min Rain = 0
KMC4 081237Z 31005KT 05/04 A3044 RMK A01 T00460041  RH  097%=      5-min Rain = 0
KMC4 081238Z 30004KT 05/04 A3044 RMK A01 T00460041  RH  097%=      5-min Rain = 0
KMC4 081239Z 30004KT 05/04 A3044 RMK A01 T00460041  RH  097%=      5-min Rain = 0
KMC4 081240Z 30004KT 05/04 A3044 RMK A01 T00460041  RH  097%=      5-min Rain = 0
KMC4 081241Z 30005KT 05/04 A3044 RMK A01 T00460041  RH  097%=      5-min Rain = 0
KMC4 081242Z 30004KT 05/04 A3044 RMK A01 T00460042  RH  097%=      5-min Rain = 0
KMC4 081243Z 30004KT 05/04 A3044 RMK A01 T00460042  RH  097%=      5-min Rain = 0
KMC4 081244Z 30004KT 05/04 A3044 RMK A01 T00460041  RH  097%=      5-min Rain = 0
KMC4 081245Z 30004KT 05/04 A3044 RMK A01 T00460042  RH  097%=      5-min Rain = 0
KMC4 081246Z 31004KT 05/04 A3044 RMK A01 T00460042  RH  097%=      5-min Rain = 0
KMC4 081247Z 32006KT 05/04 A3044 RMK A01 T00460042  RH  097%=      5-min Rain = 0
KMC4 081248Z 31005KT 05/04 A3044 RMK A01 T00460042  RH  097%=      5-min Rain = 0
KMC4 081249Z 30005KT 05/04 A3044 RMK A01 T00460042  RH  097%=      5-min Rain = 0
KMC4 081250Z 30005KT 05/04 A3044 RMK A01 T00460042  RH  097%=      5-min Rain = 0
KMC4 081251Z 30005KT 05/04 A3044 RMK A01 T00460042  RH  097%=      5-min Rain = 0
KMC4 081252Z 31005KT 05/04 A3044 RMK A01 T00460042  RH  097%=      5-min Rain = 0
KMC4 081253Z 30006KT 05/04 A3044 RMK A01 T00460042  RH  097%=      5-min Rain = 0
KMC4 081254Z 30006KT 05/04 A3044 RMK A01 T00460042  RH  097%=      5-min Rain = 0
KMC4 081255Z 30005KT 05/04 A3044 RMK A01 T00450042  RH  097%=      5-min Rain = 0
KMC4 081256Z 31005KT 05/04 A3044 RMK A01 T00450042  RH  097%=      5-min Rain = 0
KMC4 081257Z 30005KT 05/04 A3044 RMK A01 T00450042  RH  097%=      5-min Rain = 0
KMC4 081258Z 30005KT 05/04 A3044 RMK A01 T00460042  RH  097%=      5-min Rain = 0
KMC4 081259Z 30004KT 05/04 A3044 RMK A01 T00460042  RH  098%=      5-min Rain = 0
KMC4 081300Z 29006KT 05/04 A3044 RMK A01 T00460042  RH  098%=      5-min Rain = 0
KMC4 081301Z 30006KT 05/04 A3044 RMK A01 T00460042  RH  098%=      5-min Rain = 0
KMC4 081302Z 30005KT 05/04 A3044 RMK A01 T00460042  RH  098%=      5-min Rain = 0
KMC4 081303Z 30005KT 05/04 A3044 RMK A01 T00450042  RH  098%=      5-min Rain = 0
KMC4 081304Z 30005KT 05/04 A3044 RMK A01 T00450042  RH  098%=      5-min Rain = 0
KMC4 081305Z 30004KT 05/04 A3044 RMK A01 T00460042  RH  098%=      5-min Rain = 0
KMC4 081306Z 30003KT 05/04 A3044 RMK A01 T00450042  RH  098%=      5-min Rain = 0
KMC4 081307Z 30005KT 05/04 A3044 RMK A01 T00450042  RH  098%=      5-min Rain = 0
KMC4 081308Z 31004KT 05/04 A3044 RMK A01 T00450042  RH  098%=      5-min Rain = 0
KMC4 081309Z 30004KT 05/04 A3044 RMK A01 T00450042  RH  098%=      5-min Rain = 0
KMC4 081310Z 31004KT 05/04 A3044 RMK A01 T00450042  RH  098%=      5-min Rain = 0
KMC4 081311Z 31004KT 05/04 A3044 RMK A01 T00450042  RH  098%=      5-min Rain = 0
KMC4 081312Z 32004KT 05/04 A3044 RMK A01 T00450042  RH  098%=      5-min Rain = 0.01
KMC4 081313Z 31003KT 05/04 A3044 RMK A01 T00460043  RH  098%=      5-min Rain = 0
KMC4 081314Z 30003KT 05/04 A3044 RMK A01 T00460043  RH  098%=      5-min Rain = 0
KMC4 081315Z 30005KT 05/04 A3044 RMK A01 T00460043  RH  098%=      5-min Rain = 0
KMC4 081316Z 29005KT 05/04 A3044 RMK A01 T00460043  RH  098%=      5-min Rain = 0
KMC4 081317Z 30005KT 05/04 A3044 RMK A01 T00460043  RH  098%=      5-min Rain = 0
KMC4 081318Z 30006KT 05/04 A3044 RMK A01 T00460043  RH  098%=      5-min Rain = 0
KMC4 081319Z 30005KT 05/04 A3044 RMK A01 T00460043  RH  098%=      5-min Rain = 0
KMC4 081320Z 30005KT 05/04 A3044 RMK A01 T00460044  RH  098%=      5-min Rain = 0
KMC4 081321Z 30005KT 05/04 A3044 RMK A01 T00460043  RH  098%=      5-min Rain = 0
KMC4 081322Z 31005KT 05/04 A3044 RMK A01 T00460043  RH  098%=      5-min Rain = 0
KMC4 081323Z 31005KT 05/04 A3044 RMK A01 T00460044  RH  098%=      5-min Rain = 0
KMC4 081324Z 30004KT 05/04 A3044 RMK A01 T00460044  RH  098%=      5-min Rain = 0
KMC4 081325Z 29004KT 05/04 A3044 RMK A01 T00470044  RH  098%=      5-min Rain = 0
KMC4 081326Z 30005KT 05/04 A3044 RMK A01 T00470044  RH  098%=      5-min Rain = 0
KMC4 081327Z 30005KT 05/04 A3044 RMK A01 T00470044  RH  098%=      5-min Rain = 0
KMC4 081328Z 30005KT 05/04 A3044 RMK A01 T00470044  RH  098%=      5-min Rain = 0
KMC4 081329Z 30004KT 05/04 A3044 RMK A01 T00470044  RH  098%=      5-min Rain = 0
KMC4 081330Z 30004KT 05/04 A3044 RMK A01 T00470044  RH  098%=      5-min Rain = 0
KMC4 081331Z 30004KT 05/04 A3044 RMK A01 T00470044  RH  098%=      5-min Rain = 0
KMC4 081332Z 29005KT 05/04 A3044 RMK A01 T00470044  RH  098%=      5-min Rain = 0
KMC4 081333Z 30005KT 05/04 A3044 RMK A01 T00470044  RH  098%=      5-min Rain = 0
KMC4 081334Z 30005KT 05/04 A3045 RMK A01 T00470044  RH  098%=      5-min Rain = 0
KMC4 081335Z 30005KT 05/04 A3045 RMK A01 T00470044  RH  098%=      5-min Rain = 0
KMC4 081336Z 30006KT 05/04 A3045 RMK A01 T00470044  RH  098%=      5-min Rain = 0
KMC4 081337Z 29006KT 05/04 A3045 RMK A01 T00470044  RH  098%=      5-min Rain = 0
KMC4 081338Z 29007KT 05/04 A3045 RMK A01 T00470044  RH  098%=      5-min Rain = 0
KMC4 081339Z 30007KT 05/04 A3045 RMK A01 T00460043  RH  098%=      5-min Rain = 0
KMC4 081340Z 30006KT 05/04 A3045 RMK A01 T00460044  RH  098%=      5-min Rain = 0
KMC4 081341Z 30007KT 05/04 A3045 RMK A01 T00470044  RH  098%=      5-min Rain = 0
KMC4 081342Z 30006KT 05/04 A3045 RMK A01 T00460043  RH  098%=      5-min Rain = 0
KMC4 081343Z 30006KT 05/04 A3045 RMK A01 T00460043  RH  098%=      5-min Rain = 0
KMC4 081344Z 31005KT 05/04 A3045 RMK A01 T00460044  RH  098%=      5-min Rain = 0
KMC4 081345Z 30007KT 05/04 A3045 RMK A01 T00460043  RH  098%=      5-min Rain = 0
KMC4 081346Z 30006KT 05/04 A3045 RMK A01 T00460043  RH  098%=      5-min Rain = 0
KMC4 081347Z 30007KT 05/04 A3045 RMK A01 T00460043  RH  098%=      5-min Rain = 0
KMC4 081348Z 31005KT 05/04 A3045 RMK A01 T00460043  RH  098%=      5-min Rain = 0
KMC4 081349Z 31004KT 05/04 A3045 RMK A01 T00460043  RH  098%=      5-min Rain = 0
KMC4 081350Z 32005KT 05/04 A3045 RMK A01 T00460043  RH  098%=      5-min Rain = 0
KMC4 081351Z 31005KT 05/04 A3045 RMK A01 T00460043  RH  098%=      5-min Rain = 0
KMC4 081352Z 30004KT 05/04 A3045 RMK A01 T00460043  RH  098%=      5-min Rain = 0
KMC4 081353Z 30006KT 05/04 A3045 RMK A01 T00460043  RH  098%=      5-min Rain = 0
KMC4 081354Z 30005KT 05/04 A3046 RMK A01 T00460043  RH  098%=      5-min Rain = 0
KMC4 081355Z 30006KT 05/04 A3046 RMK A01 T00460043  RH  098%=      5-min Rain = 0
KMC4 081356Z 29005KT 05/04 A3046 RMK A01 T00460043  RH  098%=      5-min Rain = 0
KMC4 081357Z 30006KT 05/04 A3046 RMK A01 T00460043  RH  098%=      5-min Rain = 0
KMC4 081358Z 31005KT 05/04 A3046 RMK A01 T00460043  RH  098%=      5-min Rain = 0
KMC4 081359Z 30005KT 05/04 A3046 RMK A01 T00460043  RH  098%=      5-min Rain = 0
KMC4 081400Z 31006KT 05/04 A3046 RMK A01 T00460043  RH  098%=      5-min Rain = 0
KMC4 081401Z 30006KT 05/04 A3046 RMK A01 T00460043  RH  098%=      5-min Rain = 0
KMC4 081402Z 30005KT 05/04 A3046 RMK A01 T00460042  RH  098%=      5-min Rain = 0
KMC4 081403Z 30006KT 05/04 A3046 RMK A01 T00460043  RH  098%=      5-min Rain = 0
KMC4 081404Z 31006KT 05/04 A3046 RMK A01 T00460043  RH  098%=      5-min Rain = 0
KMC4 081405Z 31005KT 05/04 A3046 RMK A01 T00460043  RH  098%=      5-min Rain = 0
KMC4 081406Z 30005KT 05/04 A3046 RMK A01 T00460043  RH  098%=      5-min Rain = 0
KMC4 081407Z 31004KT 05/04 A3046 RMK A01 T00460043  RH  098%=      5-min Rain = 0
KMC4 081408Z 31004KT 05/04 A3046 RMK A01 T00460043  RH  098%=      5-min Rain = 0
KMC4 081409Z 30004KT 05/04 A3046 RMK A01 T00470043  RH  098%=      5-min Rain = 0
KMC4 081410Z 30005KT 05/04 A3046 RMK A01 T00470044  RH  098%=      5-min Rain = 0
KMC4 081411Z 31005KT 05/04 A3046 RMK A01 T00470044  RH  098%=      5-min Rain = 0
KMC4 081412Z 30005KT 05/04 A3046 RMK A01 T00470044  RH  098%=      5-min Rain = 0
KMC4 081413Z 30005KT 05/04 A3046 RMK A01 T00470044  RH  098%=      5-min Rain = 0
KMC4 081414Z 31004KT 05/04 A3046 RMK A01 T00470044  RH  098%=      5-min Rain = 0
KMC4 081415Z 32004KT 05/04 A3046 RMK A01 T00470044  RH  098%=      5-min Rain = 0
KMC4 081416Z 31004KT 05/04 A3046 RMK A01 T00470044  RH  098%=      5-min Rain = 0
KMC4 081417Z 31004KT 05/05 A3046 RMK A01 T00480045  RH  098%=      5-min Rain = 0
KMC4 081418Z 32004KT 05/05 A3046 RMK A01 T00480045  RH  098%=      5-min Rain = 0
KMC4 081419Z 31004KT 05/05 A3046 RMK A01 T00480045  RH  098%=      5-min Rain = 0
KMC4 081420Z 31004KT 05/04 A3046 RMK A01 T00480044  RH  098%=      5-min Rain = 0
KMC4 081421Z 32003KT 05/04 A3046 RMK A01 T00480044  RH  098%=      5-min Rain = 0
KMC4 081422Z 30004KT 05/05 A3046 RMK A01 T00480045  RH  098%=      5-min Rain = 0
KMC4 081423Z 30005KT 05/04 A3046 RMK A01 T00480044  RH  098%=      5-min Rain = 0
KMC4 081424Z 30004KT 05/04 A3046 RMK A01 T00470044  RH  098%=      5-min Rain = 0
KMC4 081425Z 30005KT 05/04 A3046 RMK A01 T00470044  RH  098%=      5-min Rain = 0
KMC4 081426Z 30004KT 05/04 A3046 RMK A01 T00470044  RH  098%=      5-min Rain = 0
KMC4 081427Z 31003KT 05/04 A3046 RMK A01 T00470044  RH  098%=      5-min Rain = 0
KMC4 081428Z 31004KT 05/05 A3046 RMK A01 T00480045  RH  098%=      5-min Rain = 0
KMC4 081429Z 31003KT 05/04 A3046 RMK A01 T00480044  RH  098%=      5-min Rain = 0
KMC4 081430Z 31004KT 05/04 A3046 RMK A01 T00470044  RH  098%=      5-min Rain = 0
KMC4 081431Z 31003KT 05/04 A3046 RMK A01 T00470044  RH  098%=      5-min Rain = 0
KMC4 081432Z 33001KT 05/04 A3046 RMK A01 T00470044  RH  098%=      5-min Rain = 0
KMC4 081433Z 29001KT 05/04 A3046 RMK A01 T00480044  RH  098%=      5-min Rain = 0
KMC4 081434Z 30002KT 05/04 A3046 RMK A01 T00480044  RH  098%=      5-min Rain = 0
KMC4 081435Z 31002KT 05/04 A3046 RMK A01 T00480044  RH  098%=      5-min Rain = 0
KMC4 081436Z 31002KT 05/04 A3046 RMK A01 T00480044  RH  098%=      5-min Rain = 0
KMC4 081437Z 32003KT 05/05 A3046 RMK A01 T00490045  RH  098%=      5-min Rain = 0
KMC4 081438Z 33003KT 05/05 A3046 RMK A01 T00490045  RH  098%=      5-min Rain = 0
KMC4 081439Z 34002KT 05/05 A3046 RMK A01 T00480045  RH  098%=      5-min Rain = 0
KMC4 081440Z 29001KT 05/05 A3046 RMK A01 T00480045  RH  098%=      5-min Rain = 0
KMC4 081441Z 29002KT 05/04 A3046 RMK A01 T00480044  RH  098%=      5-min Rain = 0
KMC4 081442Z 31003KT 05/04 A3046 RMK A01 T00480044  RH  098%=      5-min Rain = 0
KMC4 081443Z 30003KT 05/05 A3046 RMK A01 T00480045  RH  098%=      5-min Rain = 0
KMC4 081444Z 30004KT 05/05 A3046 RMK A01 T00480045  RH  098%=      5-min Rain = 0
KMC4 081445Z 30003KT 05/04 A3046 RMK A01 T00480044  RH  097%=      5-min Rain = 0
KMC4 081446Z 29004KT 05/04 A3046 RMK A01 T00480044  RH  097%=      5-min Rain = 0
KMC4 081447Z 29005KT 05/04 A3046 RMK A01 T00480044  RH  097%=      5-min Rain = 0
KMC4 081448Z 29004KT 05/04 A3046 RMK A01 T00480044  RH  097%=      5-min Rain = 0
KMC4 081449Z 31004KT 05/05 A3046 RMK A01 T00490045  RH  097%=      5-min Rain = 0
KMC4 081450Z 33004KT 05/05 A3046 RMK A01 T00490045  RH  097%=      5-min Rain = 0
KMC4 081451Z 33003KT 05/05 A3046 RMK A01 T00490045  RH  097%=      5-min Rain = 0
KMC4 081452Z 32003KT 05/04 A3046 RMK A01 T00480044  RH  097%=      5-min Rain = 0
KMC4 081453Z 33002KT 05/04 A3046 RMK A01 T00480043  RH  097%=      5-min Rain = 0
KMC4 081454Z 32002KT 05/04 A3046 RMK A01 T00480043  RH  097%=      5-min Rain = 0
KMC4 081455Z 32002KT 05/04 A3046 RMK A01 T00480043  RH  097%=      5-min Rain = 0
KMC4 081456Z 33002KT 05/04 A3046 RMK A01 T00480042  RH  096%=      5-min Rain = 0
KMC4 081457Z 32002KT 05/04 A3046 RMK A01 T00480042  RH  096%=      5-min Rain = 0
KMC4 081458Z 33001KT 05/04 A3046 RMK A01 T00480042  RH  096%=      5-min Rain = 0
KMC4 081459Z 33003KT 05/04 A3046 RMK A01 T00480042  RH  096%=      5-min Rain = 0
KMC4 081500Z 32003KT 05/04 A3046 RMK A01 T00480042  RH  096%=      5-min Rain = 0
KMC4 081501Z 32003KT 05/04 A3046 RMK A01 T00480042  RH  096%=      5-min Rain = 0
KMC4 081502Z 32003KT 05/04 A3046 RMK A01 T00490042  RH  096%=      5-min Rain = 0
KMC4 081503Z 32002KT 05/04 A3046 RMK A01 T00490042  RH  096%=      5-min Rain = 0
KMC4 081504Z 32003KT 05/04 A3046 RMK A01 T00490042  RH  096%=      5-min Rain = 0
KMC4 081505Z 31003KT 05/04 A3046 RMK A01 T00490042  RH  096%=      5-min Rain = 0
KMC4 081506Z 31002KT 05/04 A3046 RMK A01 T00490043  RH  096%=      5-min Rain = 0
KMC4 081507Z 31003KT 05/04 A3046 RMK A01 T00500044  RH  096%=      5-min Rain = 0
KMC4 081508Z 29004KT 05/05 A3046 RMK A01 T00510045  RH  096%=      5-min Rain = 0
KMC4 081509Z 30005KT 05/05 A3046 RMK A01 T00500045  RH  096%=      5-min Rain = 0
KMC4 081510Z 30004KT 05/04 A3046 RMK A01 T00500043  RH  095%=      5-min Rain = 0
KMC4 081511Z 31004KT 05/04 A3046 RMK A01 T00500043  RH  095%=      5-min Rain = 0
KMC4 081512Z 31004KT 05/04 A3045 RMK A01 T00500043  RH  095%=      5-min Rain = 0
KMC4 081513Z 31003KT 05/04 A3045 RMK A01 T00500043  RH  095%=      5-min Rain = 0
KMC4 081514Z 31003KT 05/04 A3045 RMK A01 T00510044  RH  096%=      5-min Rain = 0
KMC4 081515Z 32005KT 05/04 A3045 RMK A01 T00510044  RH  096%=      5-min Rain = 0
KMC4 081516Z 32004KT 05/05 A3045 RMK A01 T00510045  RH  096%=      5-min Rain = 0
KMC4 081517Z 34005KT 05/04 A3045 RMK A01 T00510044  RH  095%=      5-min Rain = 0
KMC4 081518Z 33004KT 05/04 A3045 RMK A01 T00510044  RH  095%=      5-min Rain = 0
KMC4 081519Z 32004KT 05/05 A3045 RMK A01 T00510045  RH  096%=      5-min Rain = 0
KMC4 081520Z 31004KT 05/05 A3045 RMK A01 T00520045  RH  096%=      5-min Rain = 0
KMC4 081521Z 31005KT 05/05 A3045 RMK A01 T00520045  RH  095%=      5-min Rain = 0
KMC4 081522Z 32005KT 05/04 A3045 RMK A01 T00510044  RH  095%=      5-min Rain = 0
KMC4 081523Z 31005KT 05/04 A3045 RMK A01 T00520044  RH  095%=      5-min Rain = 0
KMC4 081524Z 31005KT 05/04 A3045 RMK A01 T00510044  RH  095%=      5-min Rain = 0
KMC4 081525Z 31005KT 05/04 A3045 RMK A01 T00510044  RH  095%=      5-min Rain = 0
KMC4 081526Z 31005KT 05/04 A3045 RMK A01 T00520044  RH  095%=      5-min Rain = 0
KMC4 081527Z 31004KT 05/05 A3045 RMK A01 T00520045  RH  095%=      5-min Rain = 0
KMC4 081528Z 31003KT 05/04 A3045 RMK A01 T00520044  RH  095%=      5-min Rain = 0
KMC4 081529Z 31003KT 05/04 A3045 RMK A01 T00520044  RH  095%=      5-min Rain = 0
KMC4 081530Z 34003KT 05/04 A3045 RMK A01 T00520044  RH  095%=      5-min Rain = 0
KMC4 081531Z 33004KT 05/04 A3045 RMK A01 T00520044  RH  095%=      5-min Rain = 0
KMC4 081532Z 34003KT 05/04 A3045 RMK A01 T00520043  RH  094%=      5-min Rain = 0
KMC4 081533Z 32003KT 05/04 A3045 RMK A01 T00520043  RH  094%=      5-min Rain = 0
KMC4 081534Z 31004KT 05/04 A3045 RMK A01 T00520044  RH  094%=      5-min Rain = 0
KMC4 081535Z 32005KT 05/05 A3045 RMK A01 T00530045  RH  095%=      5-min Rain = 0
KMC4 081536Z 33005KT 05/05 A3045 RMK A01 T00530045  RH  094%=      5-min Rain = 0
KMC4 081537Z 33005KT 05/04 A3045 RMK A01 T00530044  RH  094%=      5-min Rain = 0
KMC4 081538Z 32004KT 05/04 A3045 RMK A01 T00530044  RH  094%=      5-min Rain = 0
KMC4 081539Z 33004KT 05/04 A3045 RMK A01 T00520043  RH  094%=      5-min Rain = 0
KMC4 081540Z 33003KT 05/04 A3045 RMK A01 T00520044  RH  094%=      5-min Rain = 0
KMC4 081541Z 33004KT 05/04 A3045 RMK A01 T00530044  RH  094%=      5-min Rain = 0
KMC4 081542Z 33004KT 05/04 A3045 RMK A01 T00530044  RH  094%=      5-min Rain = 0
KMC4 081543Z 32004KT 05/04 A3045 RMK A01 T00530044  RH  094%=      5-min Rain = 0
KMC4 081544Z 34003KT 05/04 A3045 RMK A01 T00530044  RH  094%=      5-min Rain = 0
KMC4 081545Z 33003KT 05/05 A3045 RMK A01 T00530045  RH  094%=      5-min Rain = 0
KMC4 081546Z 32003KT 05/05 A3045 RMK A01 T00530045  RH  094%=      5-min Rain = 0
KMC4 081547Z 33003KT 05/05 A3045 RMK A01 T00540045  RH  094%=      5-min Rain = 0
KMC4 081548Z 34004KT 05/04 A3045 RMK A01 T00540044  RH  094%=      5-min Rain = 0
KMC4 081549Z 33003KT 05/04 A3045 RMK A01 T00540044  RH  094%=      5-min Rain = 0
KMC4 081550Z 34003KT 05/04 A3045 RMK A01 T00540044  RH  093%=      5-min Rain = 0
KMC4 081551Z 34002KT 05/04 A3045 RMK A01 T00540043  RH  093%=      5-min Rain = 0
KMC4 081552Z 33002KT 05/04 A3044 RMK A01 T00540044  RH  093%=      5-min Rain = 0
KMC4 081553Z 33003KT 06/05 A3044 RMK A01 T00550046  RH  094%=      5-min Rain = 0
KMC4 081554Z 33003KT 06/05 A3044 RMK A01 T00550045  RH  093%=      5-min Rain = 0
KMC4 081555Z 33002KT 06/05 A3044 RMK A01 T00550045  RH  093%=      5-min Rain = 0
KMC4 081556Z 34002KT 06/05 A3045 RMK A01 T00550045  RH  093%=      5-min Rain = 0
KMC4 081557Z 33001KT 06/05 A3045 RMK A01 T00560045  RH  093%=      5-min Rain = 0
KMC4 081558Z 32002KT 06/04 A3045 RMK A01 T00550044  RH  092%=      5-min Rain = 0
KMC4 081559Z 32001KT 06/04 A3045 RMK A01 T00560044  RH  092%=      5-min Rain = 0
KMC4 081600Z 30002KT 06/04 A3045 RMK A01 T00560044  RH  092%=      5-min Rain = 0
KMC4 081601Z 31003KT 06/04 A3045 RMK A01 T00560044  RH  092%=      5-min Rain = 0
KMC4 081602Z 31002KT 06/04 A3045 RMK A01 T00560044  RH  092%=      5-min Rain = 0
KMC4 081603Z 31002KT 06/04 A3045 RMK A01 T00560043  RH  091%=      5-min Rain = 0
KMC4 081604Z 32003KT 06/04 A3045 RMK A01 T00560044  RH  092%=      5-min Rain = 0
KMC4 081605Z 32002KT 06/05 A3045 RMK A01 T00570045  RH  092%=      5-min Rain = 0
KMC4 081606Z 31003KT 06/05 A3045 RMK A01 T00570045  RH  092%=      5-min Rain = 0
KMC4 081607Z 30003KT 06/05 A3045 RMK A01 T00580046  RH  092%=      5-min Rain = 0
KMC4 081608Z 29003KT 06/05 A3045 RMK A01 T00580047  RH  093%=      5-min Rain = 0
KMC4 081609Z 28002KT 06/05 A3045 RMK A01 T00580047  RH  092%=      5-min Rain = 0
KMC4 081610Z 28002KT 06/05 A3045 RMK A01 T00580045  RH  091%=      5-min Rain = 0
KMC4 081611Z 30002KT 06/04 A3045 RMK A01 T00570044  RH  091%=      5-min Rain = 0
KMC4 081612Z 32000KT 06/04 A3045 RMK A01 T00570044  RH  092%=      5-min Rain = 0
KMC4 081613Z 28000KT 06/05 A3045 RMK A01 T00570045  RH  092%=      5-min Rain = 0
KMC4 081614Z 28001KT 06/05 A3045 RMK A01 T00570046  RH  092%=      5-min Rain = 0
KMC4 081615Z 27002KT 06/05 A3045 RMK A01 T00580046  RH  092%=      5-min Rain = 0
KMC4 081616Z 30003KT 06/05 A3045 RMK A01 T00580047  RH  092%=      5-min Rain = 0
KMC4 081617Z 29003KT 06/05 A3045 RMK A01 T00590047  RH  092%=      5-min Rain = 0
KMC4 081618Z 29003KT 06/05 A3045 RMK A01 T00590046  RH  091%=      5-min Rain = 0
KMC4 081619Z 30003KT 06/05 A3045 RMK A01 T00580045  RH  091%=      5-min Rain = 0
KMC4 081620Z 30002KT 06/04 A3045 RMK A01 T00580044  RH  091%=      5-min Rain = 0
KMC4 081621Z 30002KT 06/04 A3045 RMK A01 T00580044  RH  091%=      5-min Rain = 0
KMC4 081622Z 29002KT 06/04 A3045 RMK A01 T00580044  RH  091%=      5-min Rain = 0
KMC4 081623Z 29002KT 06/04 A3045 RMK A01 T00580044  RH  091%=      5-min Rain = 0
KMC4 081624Z 28001KT 06/04 A3045 RMK A01 T00580044  RH  091%=      5-min Rain = 0
KMC4 081625Z 27002KT 06/04 A3045 RMK A01 T00580044  RH  091%=      5-min Rain = 0
KMC4 081626Z 26002KT 06/05 A3045 RMK A01 T00590046  RH  091%=      5-min Rain = 0
KMC4 081627Z 29003KT 06/05 A3045 RMK A01 T00590045  RH  091%=      5-min Rain = 0
KMC4 081628Z 30002KT 06/05 A3044 RMK A01 T00590045  RH  090%=      5-min Rain = 0
KMC4 081629Z 30002KT 06/05 A3044 RMK A01 T00590045  RH  091%=      5-min Rain = 0
KMC4 081630Z 30002KT 06/05 A3045 RMK A01 T00600046  RH  091%=      5-min Rain = 0
KMC4 081631Z 31001KT 06/05 A3044 RMK A01 T00600046  RH  091%=      5-min Rain = 0
KMC4 081632Z 30001KT 06/05 A3044 RMK A01 T00600046  RH  090%=      5-min Rain = 0
KMC4 081633Z 25002KT 06/05 A3044 RMK A01 T00610046  RH  090%=      5-min Rain = 0
KMC4 081634Z 24002KT 06/05 A3044 RMK A01 T00610047  RH  091%=      5-min Rain = 0
KMC4 081635Z 24003KT 06/05 A3044 RMK A01 T00620048  RH  091%=      5-min Rain = 0
KMC4 081636Z 24003KT 06/05 A3044 RMK A01 T00620047  RH  090%=      5-min Rain = 0
KMC4 081637Z 25003KT 06/05 A3044 RMK A01 T00620046  RH  090%=      5-min Rain = 0
KMC4 081638Z 23002KT 06/05 A3044 RMK A01 T00620047  RH  090%=      5-min Rain = 0
KMC4 081639Z 24003KT 06/05 A3044 RMK A01 T00620048  RH  091%=      5-min Rain = 0
KMC4 081640Z 26004KT 06/05 A3044 RMK A01 T00620048  RH  091%=      5-min Rain = 0
KMC4 081641Z 26004KT 06/05 A3044 RMK A01 T00620047  RH  090%=      5-min Rain = 0
KMC4 081642Z 25005KT 06/05 A3044 RMK A01 T00620048  RH  090%=      5-min Rain = 0
KMC4 081643Z 24004KT 06/05 A3044 RMK A01 T00620047  RH  090%=      5-min Rain = 0
KMC4 081644Z 23004KT 06/05 A3044 RMK A01 T00610047  RH  090%=      5-min Rain = 0
KMC4 081645Z 24004KT 06/05 A3044 RMK A01 T00620048  RH  091%=      5-min Rain = 0
KMC4 081646Z 23004KT 06/05 A3044 RMK A01 T00620050  RH  092%=      5-min Rain = 0
KMC4 081647Z 23004KT 06/05 A3044 RMK A01 T00620048  RH  091%=      5-min Rain = 0
KMC4 081648Z 24004KT 06/05 A3044 RMK A01 T00610046  RH  090%=      5-min Rain = 0
KMC4 081649Z 25004KT 06/05 A3044 RMK A01 T00610046  RH  090%=      5-min Rain = 0
KMC4 081650Z 25004KT 06/05 A3044 RMK A01 T00610047  RH  090%=      5-min Rain = 0
KMC4 081651Z 26003KT 06/05 A3044 RMK A01 T00610047  RH  090%=      5-min Rain = 0
KMC4 081652Z 26004KT 06/05 A3044 RMK A01 T00610047  RH  091%=      5-min Rain = 0
KMC4 081653Z 26003KT 06/05 A3044 RMK A01 T00610047  RH  091%=      5-min Rain = 0
KMC4 081654Z 26003KT 06/05 A3044 RMK A01 T00610046  RH  090%=      5-min Rain = 0
KMC4 081655Z 25004KT 06/05 A3044 RMK A01 T00610045  RH  090%=      5-min Rain = 0
KMC4 081656Z 26004KT 06/05 A3044 RMK A01 T00620048  RH  091%=      5-min Rain = 0
KMC4 081657Z 25004KT 06/05 A3043 RMK A01 T00620048  RH  090%=      5-min Rain = 0
KMC4 081658Z 27002KT 06/05 A3043 RMK A01 T00620046  RH  089%=      5-min Rain = 0
KMC4 081659Z 28003KT 06/05 A3043 RMK A01 T00620046  RH  090%=      5-min Rain = 0
KMC4 081700Z 29003KT 06/05 A3043 RMK A01 T00630048  RH  090%=      5-min Rain = 0
KMC4 081701Z 28003KT 06/05 A3043 RMK A01 T00640049  RH  091%=      5-min Rain = 0
KMC4 081702Z 27002KT 06/05 A3043 RMK A01 T00640049  RH  090%=      5-min Rain = 0
KMC4 081703Z 25002KT 06/05 A3043 RMK A01 T00630046  RH  089%=      5-min Rain = 0
KMC4 081704Z 27003KT 06/05 A3043 RMK A01 T00630046  RH  089%=      5-min Rain = 0
KMC4 081705Z 28003KT 06/05 A3043 RMK A01 T00640048  RH  090%=      5-min Rain = 0
KMC4 081706Z 27004KT 06/05 A3043 RMK A01 T00640048  RH  089%=      5-min Rain = 0
KMC4 081707Z 27004KT 07/05 A3043 RMK A01 T00650049  RH  090%=      5-min Rain = 0
KMC4 081708Z 26004KT 07/05 A3043 RMK A01 T00660050  RH  090%=      5-min Rain = 0
KMC4 081709Z 27003KT 07/05 A3043 RMK A01 T00660049  RH  089%=      5-min Rain = 0
KMC4 081710Z 26003KT 07/05 A3043 RMK A01 T00660046  RH  087%=      5-min Rain = 0
KMC4 081711Z 29003KT 07/05 A3043 RMK A01 T00650046  RH  088%=      5-min Rain = 0
KMC4 081712Z 29004KT 07/05 A3043 RMK A01 T00660049  RH  089%=      5-min Rain = 0
KMC4 081713Z 28004KT 07/05 A3043 RMK A01 T00670049  RH  088%=      5-min Rain = 0
KMC4 081714Z 30004KT 07/05 A3043 RMK A01 T00670050  RH  089%=      5-min Rain = 0
KMC4 081715Z 30005KT 07/05 A3043 RMK A01 T00690050  RH  088%=      5-min Rain = 0
KMC4 081716Z 29004KT 07/05 A3043 RMK A01 T00680049  RH  088%=      5-min Rain = 0
KMC4 081717Z 30003KT 07/05 A3043 RMK A01 T00680047  RH  086%=      5-min Rain = 0
KMC4 081718Z 28004KT 07/05 A3043 RMK A01 T00670047  RH  087%=      5-min Rain = 0
KMC4 081719Z 28004KT 07/05 A3043 RMK A01 T00680050  RH  089%=      5-min Rain = 0
KMC4 081720Z 28005KT 07/05 A3043 RMK A01 T00680051  RH  089%=      5-min Rain = 0
KMC4 081721Z 28005KT 07/05 A3043 RMK A01 T00670049  RH  088%=      5-min Rain = 0
KMC4 081722Z 26004KT 07/05 A3043 RMK A01 T00660049  RH  089%=      5-min Rain = 0
KMC4 081723Z 27004KT 07/05 A3043 RMK A01 T00670052  RH  090%=      5-min Rain = 0
KMC4 081724Z 26004KT 07/05 A3043 RMK A01 T00670052  RH  090%=      5-min Rain = 0
KMC4 081725Z 27005KT 07/05 A3043 RMK A01 T00680052  RH  090%=      5-min Rain = 0
KMC4 081726Z 31004KT 07/05 A3043 RMK A01 T00680052  RH  090%=      5-min Rain = 0
KMC4 081727Z 29004KT 07/05 A3043 RMK A01 T00680053  RH  090%=      5-min Rain = 0
KMC4 081728Z 28004KT 07/05 A3043 RMK A01 T00680051  RH  089%=      5-min Rain = 0
KMC4 081729Z 28004KT 07/05 A3043 RMK A01 T00680049  RH  088%=      5-min Rain = 0
KMC4 081730Z 28005KT 07/05 A3043 RMK A01 T00680048  RH  087%=      5-min Rain = 0
KMC4 081731Z 29004KT 07/05 A3043 RMK A01 T00670047  RH  087%=      5-min Rain = 0
KMC4 081732Z 28005KT 07/05 A3043 RMK A01 T00670049  RH  088%=      5-min Rain = 0
KMC4 081733Z 27004KT 07/05 A3043 RMK A01 T00680049  RH  087%=      5-min Rain = 0
KMC4 081734Z 26004KT 07/05 A3043 RMK A01 T00680047  RH  087%=      5-min Rain = 0
KMC4 081735Z 27004KT 07/05 A3043 RMK A01 T00670048  RH  087%=      5-min Rain = 0
KMC4 081736Z 29004KT 07/05 A3043 RMK A01 T00680048  RH  087%=      5-min Rain = 0
KMC4 081737Z 28004KT 07/05 A3043 RMK A01 T00680049  RH  087%=      5-min Rain = 0
KMC4 081738Z 28004KT 07/05 A3043 RMK A01 T00680047  RH  086%=      5-min Rain = 0
KMC4 081739Z 28004KT 07/05 A3042 RMK A01 T00690048  RH  087%=      5-min Rain = 0
KMC4 081740Z 28004KT 07/05 A3042 RMK A01 T00690048  RH  087%=      5-min Rain = 0
KMC4 081741Z 29004KT 07/05 A3042 RMK A01 T00690048  RH  087%=      5-min Rain = 0
KMC4 081742Z 29006KT 07/05 A3042 RMK A01 T00690050  RH  088%=      5-min Rain = 0
KMC4 081743Z 28005KT 07/05 A3042 RMK A01 T00700053  RH  089%=      5-min Rain = 0
KMC4 081744Z 28005KT 07/05 A3042 RMK A01 T00700051  RH  088%=      5-min Rain = 0
KMC4 081745Z 28004KT 07/05 A3042 RMK A01 T00690048  RH  087%=      5-min Rain = 0
KMC4 081746Z 27004KT 07/05 A3042 RMK A01 T00690049  RH  087%=      5-min Rain = 0
KMC4 081747Z 27003KT 07/05 A3042 RMK A01 T00690049  RH  087%=      5-min Rain = 0
KMC4 081748Z 31004KT 07/05 A3042 RMK A01 T00690050  RH  088%=      5-min Rain = 0
KMC4 081749Z 32005KT 07/05 A3042 RMK A01 T00700053  RH  089%=      5-min Rain = 0
KMC4 081750Z 31004KT 07/05 A3042 RMK A01 T00710052  RH  088%=      5-min Rain = 0
KMC4 081751Z 29005KT 07/05 A3042 RMK A01 T00720054  RH  088%=      5-min Rain = 0
KMC4 081752Z 30005KT 07/05 A3042 RMK A01 T00720053  RH  087%=      5-min Rain = 0
KMC4 081753Z 30003KT 07/05 A3042 RMK A01 T00720052  RH  087%=      5-min Rain = 0
KMC4 081754Z 30004KT 07/05 A3042 RMK A01 T00720051  RH  087%=      5-min Rain = 0
KMC4 081755Z 30004KT 07/05 A3042 RMK A01 T00720051  RH  087%=      5-min Rain = 0
KMC4 081756Z 30006KT 07/05 A3042 RMK A01 T00720053  RH  087%=      5-min Rain = 0
KMC4 081757Z 30004KT 07/05 A3042 RMK A01 T00720051  RH  086%=      5-min Rain = 0
KMC4 081758Z 31004KT 07/05 A3042 RMK A01 T00720052  RH  087%=      5-min Rain = 0
KMC4 081759Z 30005KT 07/05 A3042 RMK A01 T00720050  RH  086%=      5-min Rain = 0
KMC4 081800Z 29003KT 07/05 A3042 RMK A01 T00720050  RH  086%=      5-min Rain = 0
KMC4 081801Z 28005KT 07/05 A3042 RMK A01 T00730053  RH  087%=      5-min Rain = 0
KMC4 081802Z 27005KT 07/05 A3042 RMK A01 T00740053  RH  087%=      5-min Rain = 0
KMC4 081803Z 28005KT 07/05 A3042 RMK A01 T00730051  RH  086%=      5-min Rain = 0
KMC4 081804Z 28007KT 07/05 A3042 RMK A01 T00730052  RH  087%=      5-min Rain = 0
KMC4 081805Z 28007KT 07/05 A3042 RMK A01 T00720052  RH  087%=      5-min Rain = 0
KMC4 081806Z 28006KT 07/05 A3042 RMK A01 T00710048  RH  086%=      5-min Rain = 0
KMC4 081807Z 28005KT 07/05 A3042 RMK A01 T00700048  RH  086%=      5-min Rain = 0
KMC4 081808Z 28004KT 07/05 A3042 RMK A01 T00690048  RH  086%=      5-min Rain = 0
KMC4 081809Z 27005KT 07/05 A3041 RMK A01 T00700049  RH  087%=      5-min Rain = 0
KMC4 081810Z 26004KT 07/05 A3041 RMK A01 T00700050  RH  087%=      5-min Rain = 0
KMC4 081816Z 30006KT 07/05 A3042 RMK A01 T00730050  RH  085%=      5-min Rain = 0
KMC4 081817Z 28006KT 07/05 A3042 RMK A01 T00730051  RH  086%=      5-min Rain = 0
KMC4 081818Z 29007KT 07/05 A3042 RMK A01 T00730050  RH  085%=      5-min Rain = 0
KMC4 081819Z 29007KT 07/05 A3042 RMK A01 T00740051  RH  086%=      5-min Rain = 0
KMC4 081820Z 29007KT 07/05 A3042 RMK A01 T00740050  RH  085%=      5-min Rain = 0
KMC4 081821Z 29006KT 07/05 A3042 RMK A01 T00740050  RH  085%=      5-min Rain = 0
KMC4 081822Z 29005KT 07/05 A3042 RMK A01 T00740051  RH  085%=      5-min Rain = 0
KMC4 081823Z 29007KT 08/05 A3042 RMK A01 T00750052  RH  086%=      5-min Rain = 0
KMC4 081824Z 29005KT 08/05 A3042 RMK A01 T00750051  RH  085%=      5-min Rain = 0
KMC4 081825Z 29004KT 07/05 A3042 RMK A01 T00740050  RH  085%=      5-min Rain = 0
KMC4 081826Z 30004KT 07/05 A3042 RMK A01 T00740050  RH  084%=      5-min Rain = 0
KMC4 081827Z 30006KT 08/05 A3042 RMK A01 T00750051  RH  085%=      5-min Rain = 0
KMC4 081828Z 29007KT 08/05 A3042 RMK A01 T00750051  RH  085%=      5-min Rain = 0
KMC4 081829Z 29006KT 08/05 A3041 RMK A01 T00750050  RH  084%=      5-min Rain = 0
KMC4 081830Z 29005KT 08/05 A3041 RMK A01 T00750050  RH  084%=      5-min Rain = 0
KMC4 081831Z 29004KT 08/05 A3041 RMK A01 T00750051  RH  084%=      5-min Rain = 0
KMC4 081832Z 29003KT 08/05 A3041 RMK A01 T00750049  RH  083%=      5-min Rain = 0
KMC4 081833Z 30003KT 08/05 A3041 RMK A01 T00750049  RH  084%=      5-min Rain = 0
KMC4 081834Z 30003KT 08/05 A3041 RMK A01 T00750051  RH  085%=      5-min Rain = 0
KMC4 081835Z 29003KT 08/05 A3041 RMK A01 T00760053  RH  085%=      5-min Rain = 0
KMC4 081836Z 30005KT 08/05 A3041 RMK A01 T00770054  RH  085%=      5-min Rain = 0
KMC4 081837Z 29006KT 08/05 A3041 RMK A01 T00770052  RH  084%=      5-min Rain = 0
KMC4 081838Z 29005KT 08/05 A3041 RMK A01 T00770053  RH  084%=      5-min Rain = 0
KMC4 081839Z 29005KT 08/05 A3041 RMK A01 T00780052  RH  084%=      5-min Rain = 0
KMC4 081840Z 28006KT 08/05 A3041 RMK A01 T00770051  RH  083%=      5-min Rain = 0
KMC4 081841Z 28003KT 08/05 A3041 RMK A01 T00760047  RH  082%=      5-min Rain = 0
KMC4 081842Z 30004KT 08/05 A3041 RMK A01 T00750049  RH  083%=      5-min Rain = 0
KMC4 081843Z 30004KT 08/05 A304 RMK A01 T00750049  RH  084%=      5-min Rain = 0
KMC4 081844Z 28004KT 08/05 A304 RMK A01 T00750048  RH  083%=      5-min Rain = 0
KMC4 081845Z 28004KT 08/05 A304 RMK A01 T00760051  RH  084%=      5-min Rain = 0
KMC4 081846Z 28003KT 08/05 A304 RMK A01 T00760050  RH  083%=      5-min Rain = 0
KMC4 081847Z 28004KT 08/05 A304 RMK A01 T00760051  RH  084%=      5-min Rain = 0
KMC4 081848Z 27005KT 08/05 A304 RMK A01 T00770052  RH  084%=      5-min Rain = 0
KMC4 081849Z 27005KT 08/05 A304 RMK A01 T00770050  RH  083%=      5-min Rain = 0
KMC4 081850Z 27006KT 08/05 A304 RMK A01 T00760049  RH  083%=      5-min Rain = 0
KMC4 081851Z 27005KT 08/05 A304 RMK A01 T00750048  RH  083%=      5-min Rain = 0
KMC4 081852Z 28005KT 08/05 A304 RMK A01 T00750050  RH  084%=      5-min Rain = 0
KMC4 081853Z 28005KT 08/05 A304 RMK A01 T00760051  RH  084%=      5-min Rain = 0
KMC4 081854Z 28004KT 08/05 A304 RMK A01 T00760050  RH  084%=      5-min Rain = 0
KMC4 081855Z 27003KT 08/05 A304 RMK A01 T00760052  RH  085%=      5-min Rain = 0
KMC4 081856Z 30004KT 08/05 A304 RMK A01 T00760051  RH  084%=      5-min Rain = 0
KMC4 081857Z 30004KT 08/05 A304 RMK A01 T00770052  RH  084%=      5-min Rain = 0
KMC4 081858Z 32004KT 08/05 A3039 RMK A01 T00780054  RH  085%=      5-min Rain = 0
KMC4 081859Z 32005KT 08/05 A3039 RMK A01 T00790054  RH  085%=      5-min Rain = 0
KMC4 081900Z 33004KT 08/05 A3039 RMK A01 T00790053  RH  084%=      5-min Rain = 0
KMC4 081901Z 30003KT 08/05 A3039 RMK A01 T00780051  RH  083%=      5-min Rain = 0
KMC4 081902Z 29005KT 08/05 A3039 RMK A01 T00780053  RH  084%=      5-min Rain = 0
KMC4 081903Z 28006KT 08/05 A3039 RMK A01 T00780054  RH  084%=      5-min Rain = 0
KMC4 081904Z 29006KT 08/05 A3039 RMK A01 T00780053  RH  084%=      5-min Rain = 0
KMC4 081905Z 28004KT 08/05 A3039 RMK A01 T00780052  RH  083%=      5-min Rain = 0
KMC4 081906Z 28004KT 08/05 A3039 RMK A01 T00780052  RH  084%=      5-min Rain = 0
KMC4 081907Z 27006KT 08/05 A3039 RMK A01 T00780053  RH  084%=      5-min Rain = 0
KMC4 081908Z 27005KT 08/05 A3039 RMK A01 T00780051  RH  083%=      5-min Rain = 0
KMC4 081909Z 29005KT 08/05 A3039 RMK A01 T00770051  RH  083%=      5-min Rain = 0
KMC4 081910Z 30005KT 08/05 A3039 RMK A01 T00780054  RH  085%=      5-min Rain = 0
KMC4 081911Z 29007KT 08/05 A3039 RMK A01 T00780053  RH  084%=      5-min Rain = 0
KMC4 081912Z 29007KT 08/05 A3039 RMK A01 T00790054  RH  084%=      5-min Rain = 0
KMC4 081913Z 29006KT 08/05 A3039 RMK A01 T00790054  RH  084%=      5-min Rain = 0
KMC4 081914Z 29007KT 08/05 A3039 RMK A01 T00790053  RH  084%=      5-min Rain = 0
KMC4 081915Z 27005KT 08/05 A3039 RMK A01 T00780051  RH  083%=      5-min Rain = 0
KMC4 081916Z 28006KT 08/05 A3038 RMK A01 T00780053  RH  084%=      5-min Rain = 0
KMC4 081917Z 28004KT 08/05 A3038 RMK A01 T00780052  RH  084%=      5-min Rain = 0
KMC4 081918Z 29004KT 08/05 A3038 RMK A01 T00780052  RH  083%=      5-min Rain = 0
KMC4 081919Z 29006KT 08/05 A3038 RMK A01 T00780052  RH  084%=      5-min Rain = 0
KMC4 081920Z 30005KT 08/05 A3038 RMK A01 T00780051  RH  083%=      5-min Rain = 0
KMC4 081921Z 31005KT 08/05 A3038 RMK A01 T00780051  RH  083%=      5-min Rain = 0
KMC4 081922Z 29005KT 08/06 A3038 RMK A01 T00790055  RH  085%=      5-min Rain = 0
KMC4 081923Z 28007KT 08/05 A3038 RMK A01 T00800054  RH  084%=      5-min Rain = 0
KMC4 081924Z 29006KT 08/05 A3038 RMK A01 T00790051  RH  082%=      5-min Rain = 0
KMC4 081925Z 28005KT 08/05 A3038 RMK A01 T00790051  RH  083%=      5-min Rain = 0
KMC4 081926Z 27005KT 08/05 A3038 RMK A01 T00790051  RH  083%=      5-min Rain = 0
KMC4 081927Z 27005KT 08/05 A3038 RMK A01 T00780052  RH  083%=      5-min Rain = 0
KMC4 081928Z 29006KT 08/05 A3038 RMK A01 T00780052  RH  084%=      5-min Rain = 0
KMC4 081929Z 31006KT 08/06 A3038 RMK A01 T00790055  RH  085%=      5-min Rain = 0
KMC4 081930Z 32006KT 08/06 A3038 RMK A01 T00800055  RH  084%=      5-min Rain = 0
KMC4 081931Z 32005KT 08/05 A3038 RMK A01 T00800054  RH  084%=      5-min Rain = 0
KMC4 081932Z 32006KT 08/05 A3038 RMK A01 T00810053  RH  083%=      5-min Rain = 0
KMC4 081933Z 31005KT 08/05 A3038 RMK A01 T00810054  RH  083%=      5-min Rain = 0
KMC4 081934Z 31005KT 08/05 A3037 RMK A01 T00810054  RH  083%=      5-min Rain = 0
KMC4 081935Z 31005KT 08/05 A3037 RMK A01 T00810054  RH  083%=      5-min Rain = 0
KMC4 081936Z 32003KT 08/05 A3037 RMK A01 T00810054  RH  083%=      5-min Rain = 0
KMC4 081937Z 32004KT 08/06 A3037 RMK A01 T00810056  RH  084%=      5-min Rain = 0
KMC4 081938Z 31006KT 08/06 A3037 RMK A01 T00820055  RH  083%=      5-min Rain = 0
KMC4 081939Z 31005KT 08/05 A3037 RMK A01 T00810054  RH  083%=      5-min Rain = 0
KMC4 081940Z 29003KT 08/06 A3037 RMK A01 T00820056  RH  084%=      5-min Rain = 0
KMC4 081941Z 30005KT 08/06 A3037 RMK A01 T00820055  RH  083%=      5-min Rain = 0
KMC4 081942Z 30005KT 08/05 A3037 RMK A01 T00820053  RH  082%=      5-min Rain = 0
KMC4 081943Z 30005KT 08/05 A3037 RMK A01 T00810052  RH  082%=      5-min Rain = 0
KMC4 081944Z 33004KT 08/05 A3037 RMK A01 T00810054  RH  083%=      5-min Rain = 0
KMC4 081945Z 33004KT 08/05 A3037 RMK A01 T00810053  RH  082%=      5-min Rain = 0
KMC4 081946Z 30003KT 08/05 A3037 RMK A01 T00810052  RH  082%=      5-min Rain = 0
KMC4 081947Z 29006KT 08/05 A3037 RMK A01 T00810054  RH  083%=      5-min Rain = 0
KMC4 081948Z 29006KT 08/05 A3037 RMK A01 T00820054  RH  083%=      5-min Rain = 0
KMC4 081949Z 29005KT 08/05 A3037 RMK A01 T00820054  RH  083%=      5-min Rain = 0
KMC4 081950Z 28004KT 08/06 A3037 RMK A01 T00820055  RH  083%=      5-min Rain = 0
KMC4 081951Z 28004KT 08/05 A3037 RMK A01 T00820053  RH  082%=      5-min Rain = 0
KMC4 081952Z 30003KT 08/05 A3037 RMK A01 T00820053  RH  082%=      5-min Rain = 0
KMC4 081953Z 30004KT 08/05 A3036 RMK A01 T00820053  RH  082%=      5-min Rain = 0
KMC4 081954Z 29004KT 08/05 A3036 RMK A01 T00820053  RH  082%=      5-min Rain = 0
KMC4 081955Z 28003KT 08/05 A3036 RMK A01 T00820051  RH  081%=      5-min Rain = 0
KMC4 081956Z 29005KT 08/05 A3036 RMK A01 T00820053  RH  082%=      5-min Rain = 0
KMC4 081957Z 30005KT 08/06 A3036 RMK A01 T00830055  RH  083%=      5-min Rain = 0
KMC4 081958Z 28005KT 08/05 A3036 RMK A01 T00830054  RH  082%=      5-min Rain = 0
KMC4 081959Z 28005KT 08/05 A3036 RMK A01 T00830052  RH  081%=      5-min Rain = 0
KMC4 082000Z 28005KT 08/05 A3036 RMK A01 T00820052  RH  081%=      5-min Rain = 0
KMC4 082001Z 29006KT 08/05 A3036 RMK A01 T00830053  RH  082%=      5-min Rain = 0
KMC4 082002Z 28005KT 08/05 A3036 RMK A01 T00830053  RH  082%=      5-min Rain = 0
KMC4 082003Z 27005KT 08/05 A3036 RMK A01 T00830053  RH  081%=      5-min Rain = 0
KMC4 082004Z 28004KT 08/05 A3036 RMK A01 T00830053  RH  081%=      5-min Rain = 0
KMC4 082005Z 26002KT 08/05 A3036 RMK A01 T00840052  RH  081%=      5-min Rain = 0
KMC4 082006Z 27004KT 08/05 A3036 RMK A01 T00840051  RH  080%=      5-min Rain = 0
KMC4 082007Z 28005KT 08/05 A3036 RMK A01 T00840052  RH  080%=      5-min Rain = 0
KMC4 082008Z 27005KT 09/05 A3036 RMK A01 T00850053  RH  080%=      5-min Rain = 0
KMC4 082009Z 28003KT 09/05 A3036 RMK A01 T00850052  RH  079%=      5-min Rain = 0
KMC4 082010Z 30005KT 09/06 A3036 RMK A01 T00860056  RH  082%=      5-min Rain = 0
KMC4 082011Z 30006KT 09/05 A3036 RMK A01 T00870054  RH  080%=      5-min Rain = 0
KMC4 082012Z 30005KT 09/05 A3036 RMK A01 T00860053  RH  079%=      5-min Rain = 0
KMC4 082013Z 30003KT 09/05 A3036 RMK A01 T00870053  RH  079%=      5-min Rain = 0
KMC4 082014Z 30002KT 09/06 A3036 RMK A01 T00870055  RH  080%=      5-min Rain = 0
KMC4 082015Z 30002KT 09/05 A3035 RMK A01 T00870052  RH  079%=      5-min Rain = 0
KMC4 082016Z 29004KT 09/05 A3036 RMK A01 T00880054  RH  079%=      5-min Rain = 0
KMC4 082017Z 29005KT 09/06 A3035 RMK A01 T00880055  RH  080%=      5-min Rain = 0
KMC4 082018Z 30005KT 09/06 A3035 RMK A01 T00880056  RH  080%=      5-min Rain = 0
KMC4 082019Z 31004KT 09/06 A3035 RMK A01 T00880056  RH  080%=      5-min Rain = 0
KMC4 082020Z 31004KT 09/06 A3035 RMK A01 T00890058  RH  081%=      5-min Rain = 0
KMC4 082021Z 30004KT 09/05 A3035 RMK A01 T00890054  RH  079%=      5-min Rain = 0
KMC4 082022Z 31005KT 09/05 A3035 RMK A01 T00880053  RH  078%=      5-min Rain = 0
KMC4 082023Z 31004KT 09/05 A3035 RMK A01 T00880053  RH  078%=      5-min Rain = 0
KMC4 082024Z 31005KT 09/05 A3035 RMK A01 T00870052  RH  078%=      5-min Rain = 0
KMC4 082025Z 31005KT 09/05 A3035 RMK A01 T00880053  RH  079%=      5-min Rain = 0
KMC4 082026Z 32005KT 09/06 A3035 RMK A01 T00880055  RH  080%=      5-min Rain = 0
KMC4 082027Z 32005KT 09/06 A3035 RMK A01 T00880057  RH  081%=      5-min Rain = 0
KMC4 082028Z 31005KT 09/06 A3035 RMK A01 T00890057  RH  080%=      5-min Rain = 0
KMC4 082029Z 32003KT 09/06 A3035 RMK A01 T00890055  RH  079%=      5-min Rain = 0
KMC4 082030Z 29004KT 09/06 A3035 RMK A01 T00890056  RH  080%=      5-min Rain = 0
KMC4 082031Z 29005KT 09/06 A3035 RMK A01 T00890058  RH  081%=      5-min Rain = 0
KMC4 082032Z 30004KT 09/06 A3035 RMK A01 T00890056  RH  080%=      5-min Rain = 0
KMC4 082033Z 32004KT 09/06 A3035 RMK A01 T00890057  RH  080%=      5-min Rain = 0
KMC4 082034Z 33004KT 09/06 A3035 RMK A01 T00890055  RH  079%=      5-min Rain = 0
KMC4 082035Z 29004KT 09/06 A3035 RMK A01 T00890056  RH  080%=      5-min Rain = 0
KMC4 082036Z 30002KT 09/05 A3035 RMK A01 T00890054  RH  079%=      5-min Rain = 0
KMC4 082037Z 29003KT 09/05 A3035 RMK A01 T00880054  RH  079%=      5-min Rain = 0
KMC4 082038Z 28004KT 09/06 A3035 RMK A01 T00890055  RH  079%=      5-min Rain = 0
KMC4 082039Z 29005KT 09/06 A3035 RMK A01 T00890055  RH  079%=      5-min Rain = 0
KMC4 082040Z 31004KT 09/06 A3035 RMK A01 T00890056  RH  080%=      5-min Rain = 0
KMC4 082041Z 30003KT 09/06 A3035 RMK A01 T00890055  RH  079%=      5-min Rain = 0
KMC4 082042Z 29004KT 09/06 A3035 RMK A01 T00890055  RH  079%=      5-min Rain = 0
KMC4 082043Z 30005KT 09/06 A3035 RMK A01 T00890057  RH  080%=      5-min Rain = 0
KMC4 082044Z 29005KT 09/06 A3035 RMK A01 T00900056  RH  079%=      5-min Rain = 0
KMC4 082045Z 29005KT 09/06 A3035 RMK A01 T00890057  RH  080%=      5-min Rain = 0
KMC4 082046Z 30004KT 09/05 A3035 RMK A01 T00890054  RH  079%=      5-min Rain = 0
KMC4 082047Z 29004KT 09/05 A3035 RMK A01 T00890054  RH  079%=      5-min Rain = 0
KMC4 082048Z 29004KT 09/05 A3035 RMK A01 T00880053  RH  079%=      5-min Rain = 0
KMC4 082049Z 31005KT 09/05 A3035 RMK A01 T00880054  RH  080%=      5-min Rain = 0
KMC4 082050Z 31003KT 09/05 A3035 RMK A01 T00880054  RH  080%=      5-min Rain = 0
KMC4 082051Z 31004KT 09/06 A3035 RMK A01 T00880055  RH  080%=      5-min Rain = 0
KMC4 082052Z 30005KT 09/06 A3035 RMK A01 T00890056  RH  080%=      5-min Rain = 0
KMC4 082053Z 27005KT 09/06 A3035 RMK A01 T00890056  RH  080%=      5-min Rain = 0
KMC4 082054Z 28004KT 09/06 A3035 RMK A01 T00900058  RH  080%=      5-min Rain = 0
KMC4 082055Z 31004KT 09/06 A3035 RMK A01 T00910060  RH  081%=      5-min Rain = 0
KMC4 082056Z 31003KT 09/06 A3035 RMK A01 T00920059  RH  080%=      5-min Rain = 0
KMC4 082057Z 31003KT 09/06 A3035 RMK A01 T00920062  RH  081%=      5-min Rain = 0
KMC4 082058Z 30004KT 09/06 A3035 RMK A01 T00930062  RH  081%=      5-min Rain = 0
KMC4 082059Z 30003KT 09/06 A3035 RMK A01 T00930058  RH  079%=      5-min Rain = 0
KMC4 082100Z 30003KT 09/05 A3035 RMK A01 T00920054  RH  077%=      5-min Rain = 0
KMC4 082101Z 29004KT 09/06 A3034 RMK A01 T00910055  RH  078%=      5-min Rain = 0
KMC4 082102Z 30003KT 09/06 A3034 RMK A01 T00910055  RH  078%=      5-min Rain = 0
KMC4 082103Z 31003KT 09/06 A3034 RMK A01 T00910055  RH  078%=      5-min Rain = 0
KMC4 082104Z 29003KT 09/05 A3034 RMK A01 T00910054  RH  078%=      5-min Rain = 0
KMC4 082105Z 29002KT 09/05 A3034 RMK A01 T00900054  RH  078%=      5-min Rain = 0
KMC4 082106Z 28003KT 09/06 A3034 RMK A01 T00900055  RH  079%=      5-min Rain = 0
KMC4 082107Z 28004KT 09/06 A3034 RMK A01 T00900056  RH  079%=      5-min Rain = 0
KMC4 082108Z 28006KT 09/06 A3034 RMK A01 T00910056  RH  079%=      5-min Rain = 0
KMC4 082109Z 29005KT 09/06 A3034 RMK A01 T00910056  RH  079%=      5-min Rain = 0
KMC4 082110Z 29005KT 09/06 A3034 RMK A01 T00910057  RH  079%=      5-min Rain = 0
KMC4 082111Z 29004KT 09/06 A3034 RMK A01 T00910057  RH  079%=      5-min Rain = 0
KMC4 082112Z 28004KT 09/06 A3034 RMK A01 T00910056  RH  079%=      5-min Rain = 0
KMC4 082113Z 28004KT 09/06 A3034 RMK A01 T00910058  RH  080%=      5-min Rain = 0
KMC4 082114Z 27003KT 09/06 A3034 RMK A01 T00910056  RH  078%=      5-min Rain = 0
KMC4 082115Z 29004KT 09/06 A3034 RMK A01 T00910056  RH  079%=      5-min Rain = 0
KMC4 082116Z 29003KT 09/06 A3034 RMK A01 T00910055  RH  078%=      5-min Rain = 0
KMC4 082117Z 28002KT 09/05 A3034 RMK A01 T00910054  RH  078%=      5-min Rain = 0
KMC4 082118Z 26001KT 09/06 A3034 RMK A01 T00910055  RH  078%=      5-min Rain = 0
KMC4 082119Z 26001KT 09/05 A3034 RMK A01 T00910053  RH  077%=      5-min Rain = 0
KMC4 082120Z 28003KT 09/06 A3034 RMK A01 T00910057  RH  079%=      5-min Rain = 0
KMC4 082121Z 31004KT 09/06 A3034 RMK A01 T00930062  RH  081%=      5-min Rain = 0
KMC4 082122Z 31004KT 10/06 A3034 RMK A01 T00950061  RH  079%=      5-min Rain = 0
KMC4 082123Z 30004KT 09/06 A3034 RMK A01 T00940056  RH  077%=      5-min Rain = 0
KMC4 082124Z 32002KT 09/06 A3034 RMK A01 T00940056  RH  077%=      5-min Rain = 0
KMC4 082125Z 31002KT 09/06 A3034 RMK A01 T00930055  RH  077%=      5-min Rain = 0
KMC4 082126Z 30004KT 09/06 A3034 RMK A01 T00930056  RH  078%=      5-min Rain = 0
KMC4 082127Z 30003KT 09/06 A3034 RMK A01 T00930055  RH  077%=      5-min Rain = 0
KMC4 082128Z 31003KT 09/06 A3034 RMK A01 T00930057  RH  078%=      5-min Rain = 0
KMC4 082129Z 29003KT 09/06 A3034 RMK A01 T00930056  RH  077%=      5-min Rain = 0
KMC4 082130Z 28002KT 09/06 A3033 RMK A01 T00930055  RH  077%=      5-min Rain = 0
KMC4 082131Z 28002KT 09/06 A3033 RMK A01 T00930056  RH  077%=      5-min Rain = 0
KMC4 082132Z 29001KT 09/06 A3033 RMK A01 T00940056  RH  078%=      5-min Rain = 0
KMC4 082133Z 26001KT 09/05 A3033 RMK A01 T00930054  RH  076%=      5-min Rain = 0
KMC4 082134Z 30001KT 09/05 A3033 RMK A01 T00930054  RH  077%=      5-min Rain = 0
KMC4 082135Z 28004KT 09/06 A3033 RMK A01 T00940057  RH  078%=      5-min Rain = 0
KMC4 082136Z 28004KT 09/06 A3033 RMK A01 T00940057  RH  077%=      5-min Rain = 0
KMC4 082137Z 28004KT 09/06 A3033 RMK A01 T00940056  RH  077%=      5-min Rain = 0
KMC4 082138Z 28003KT 09/06 A3033 RMK A01 T00930056  RH  078%=      5-min Rain = 0
KMC4 082139Z 28003KT 09/06 A3033 RMK A01 T00930056  RH  077%=      5-min Rain = 0
KMC4 082140Z 25003KT 09/06 A3033 RMK A01 T00930057  RH  078%=      5-min Rain = 0
KMC4 082141Z 25004KT 09/06 A3033 RMK A01 T00940059  RH  079%=      5-min Rain = 0
KMC4 082142Z 26004KT 10/06 A3033 RMK A01 T00950060  RH  078%=      5-min Rain = 0
KMC4 082143Z 26002KT 10/06 A3033 RMK A01 T00950056  RH  077%=      5-min Rain = 0
KMC4 082144Z 26003KT 09/06 A3033 RMK A01 T00940056  RH  077%=      5-min Rain = 0
KMC4 082145Z 27003KT 09/06 A3033 RMK A01 T00940055  RH  077%=      5-min Rain = 0
KMC4 082146Z 28002KT 09/06 A3033 RMK A01 T00930056  RH  077%=      5-min Rain = 0
KMC4 082147Z 25002KT 09/06 A3033 RMK A01 T00930056  RH  077%=      5-min Rain = 0
KMC4 082148Z 23002KT 09/06 A3033 RMK A01 T00930056  RH  077%=      5-min Rain = 0
KMC4 082149Z 22001KT 09/06 A3033 RMK A01 T00930055  RH  077%=      5-min Rain = 0
KMC4 082150Z 22001KT 09/05 A3033 RMK A01 T00930054  RH  077%=      5-min Rain = 0
KMC4 082151Z 21001KT 09/06 A3033 RMK A01 T00930055  RH  077%=      5-min Rain = 0
KMC4 082152Z 21002KT 09/06 A3033 RMK A01 T00940056  RH  077%=      5-min Rain = 0
KMC4 082153Z 23002KT 09/06 A3033 RMK A01 T00940057  RH  077%=      5-min Rain = 0
KMC4 082154Z 22001KT 09/06 A3033 RMK A01 T00940057  RH  077%=      5-min Rain = 0
KMC4 082155Z 27002KT 09/06 A3033 RMK A01 T00940057  RH  077%=      5-min Rain = 0
KMC4 082156Z 26004KT 10/06 A3033 RMK A01 T00950058  RH  078%=      5-min Rain = 0
KMC4 082157Z 27004KT 10/06 A3033 RMK A01 T00950058  RH  078%=      5-min Rain = 0
KMC4 082158Z 28003KT 10/06 A3033 RMK A01 T00950058  RH  078%=      5-min Rain = 0
KMC4 082159Z 28003KT 10/06 A3033 RMK A01 T00950058  RH  078%=      5-min Rain = 0
KMC4 082200Z 29003KT 10/06 A3033 RMK A01 T00950058  RH  078%=      5-min Rain = 0
KMC4 082201Z 27002KT 10/06 A3033 RMK A01 T00950059  RH  078%=      5-min Rain = 0
KMC4 082202Z 29002KT 10/06 A3033 RMK A01 T00950058  RH  077%=      5-min Rain = 0
KMC4 082203Z 28003KT 10/06 A3033 RMK A01 T00950060  RH  079%=      5-min Rain = 0
KMC4 082204Z 30003KT 10/06 A3033 RMK A01 T00960060  RH  078%=      5-min Rain = 0
KMC4 082205Z 28003KT 10/06 A3033 RMK A01 T00960058  RH  077%=      5-min Rain = 0
KMC4 082206Z 28002KT 10/06 A3033 RMK A01 T00960058  RH  077%=      5-min Rain = 0
KMC4 082207Z 29001KT 10/06 A3033 RMK A01 T00960057  RH  077%=      5-min Rain = 0
KMC4 082208Z 29001KT 10/06 A3033 RMK A01 T00960060  RH  078%=      5-min Rain = 0
KMC4 082209Z 32002KT 10/06 A3033 RMK A01 T00960061  RH  079%=      5-min Rain = 0
KMC4 082210Z 31002KT 10/06 A3033 RMK A01 T00970058  RH  077%=      5-min Rain = 0
KMC4 082211Z 31002KT 10/06 A3033 RMK A01 T00960058  RH  077%=      5-min Rain = 0
KMC4 082212Z 30003KT 10/06 A3033 RMK A01 T00970060  RH  078%=      5-min Rain = 0
KMC4 082213Z 29003KT 10/06 A3033 RMK A01 T00970060  RH  077%=      5-min Rain = 0
KMC4 082214Z 29003KT 10/06 A3033 RMK A01 T00970059  RH  077%=      5-min Rain = 0
KMC4 082215Z 29003KT 10/06 A3033 RMK A01 T00970059  RH  077%=      5-min Rain = 0
KMC4 082216Z 28004KT 10/06 A3033 RMK A01 T00970059  RH  077%=      5-min Rain = 0
KMC4 082217Z 27004KT 10/06 A3033 RMK A01 T00970060  RH  078%=      5-min Rain = 0
KMC4 082218Z 28004KT 10/06 A3033 RMK A01 T00960060  RH  078%=      5-min Rain = 0
KMC4 082219Z 29003KT 10/06 A3033 RMK A01 T00960058  RH  077%=      5-min Rain = 0
KMC4 082220Z 28003KT 10/06 A3033 RMK A01 T00970060  RH  078%=      5-min Rain = 0
KMC4 082221Z 33003KT 10/06 A3033 RMK A01 T00960059  RH  078%=      5-min Rain = 0
KMC4 082222Z 35002KT 10/06 A3033 RMK A01 T00960058  RH  077%=      5-min Rain = 0
KMC4 082223Z 34002KT 10/06 A3033 RMK A01 T00960059  RH  078%=      5-min Rain = 0
KMC4 082224Z 26003KT 10/06 A3033 RMK A01 T00960062  RH  079%=      5-min Rain = 0
KMC4 082225Z 28003KT 10/06 A3033 RMK A01 T00960060  RH  078%=      5-min Rain = 0
KMC4 082226Z 26003KT 10/06 A3033 RMK A01 T00960059  RH  077%=      5-min Rain = 0
KMC4 082227Z 26003KT 10/06 A3033 RMK A01 T00960059  RH  077%=      5-min Rain = 0
KMC4 082228Z 26003KT 10/06 A3033 RMK A01 T00960058  RH  077%=      5-min Rain = 0
KMC4 082229Z 26003KT 10/06 A3033 RMK A01 T00960058  RH  077%=      5-min Rain = 0
KMC4 082230Z 27004KT 10/06 A3033 RMK A01 T00960060  RH  078%=      5-min Rain = 0
KMC4 082231Z 28003KT 10/06 A3033 RMK A01 T00950058  RH  078%=      5-min Rain = 0
KMC4 082232Z 28002KT 10/06 A3033 RMK A01 T00950057  RH  077%=      5-min Rain = 0
KMC4 082233Z 27002KT 10/06 A3033 RMK A01 T00950061  RH  079%=      5-min Rain = 0
KMC4 082234Z 28001KT 10/06 A3033 RMK A01 T00960061  RH  079%=      5-min Rain = 0
KMC4 082235Z 26002KT 10/06 A3033 RMK A01 T00960059  RH  078%=      5-min Rain = 0
KMC4 082236Z 26003KT 10/06 A3033 RMK A01 T00960059  RH  078%=      5-min Rain = 0
KMC4 082237Z 26003KT 10/06 A3033 RMK A01 T00960059  RH  078%=      5-min Rain = 0
KMC4 082238Z 30002KT 10/06 A3033 RMK A01 T00960062  RH  079%=      5-min Rain = 0
KMC4 082239Z 30002KT 10/06 A3033 RMK A01 T00960059  RH  077%=      5-min Rain = 0
KMC4 082240Z 30002KT 10/06 A3033 RMK A01 T00960058  RH  077%=      5-min Rain = 0
KMC4 082241Z 29003KT 10/06 A3033 RMK A01 T00960061  RH  079%=      5-min Rain = 0
KMC4 082242Z 29003KT 10/06 A3033 RMK A01 T00960061  RH  079%=      5-min Rain = 0
KMC4 082243Z 28002KT 10/06 A3033 RMK A01 T00960060  RH  078%=      5-min Rain = 0
KMC4 082244Z 28002KT 10/06 A3033 RMK A01 T00960059  RH  078%=      5-min Rain = 0
KMC4 082245Z 28002KT 10/06 A3033 RMK A01 T00960060  RH  078%=      5-min Rain = 0
KMC4 082246Z 30002KT 10/06 A3033 RMK A01 T00960058  RH  077%=      5-min Rain = 0
KMC4 082247Z 28002KT 10/06 A3033 RMK A01 T00960059  RH  078%=      5-min Rain = 0
KMC4 082248Z 28003KT 10/06 A3033 RMK A01 T00960060  RH  078%=      5-min Rain = 0
KMC4 082249Z 28002KT 10/06 A3033 RMK A01 T00960058  RH  078%=      5-min Rain = 0
KMC4 082250Z 26002KT 10/06 A3033 RMK A01 T00960060  RH  078%=      5-min Rain = 0
KMC4 082251Z 23002KT 10/06 A3033 RMK A01 T00960060  RH  078%=      5-min Rain = 0
KMC4 082252Z 22002KT 10/06 A3033 RMK A01 T00960058  RH  078%=      5-min Rain = 0
KMC4 082253Z 21002KT 10/06 A3033 RMK A01 T00960060  RH  078%=      5-min Rain = 0
KMC4 082254Z 21001KT 10/06 A3033 RMK A01 T00960058  RH  078%=      5-min Rain = 0
KMC4 082255Z 20001KT 10/06 A3033 RMK A01 T00950058  RH  077%=      5-min Rain = 0
KMC4 082256Z 21001KT 10/06 A3033 RMK A01 T00950059  RH  078%=      5-min Rain = 0
KMC4 082257Z 21001KT 10/06 A3034 RMK A01 T00950058  RH  078%=      5-min Rain = 0
KMC4 082258Z 17001KT 10/06 A3034 RMK A01 T00950058  RH  078%=      5-min Rain = 0
KMC4 082259Z 22002KT 10/06 A3034 RMK A01 T00950060  RH  079%=      5-min Rain = 0
KMC4 082300Z 21002KT 10/06 A3034 RMK A01 T00950058  RH  078%=      5-min Rain = 0
KMC4 082301Z 20002KT 10/06 A3034 RMK A01 T00950058  RH  078%=      5-min Rain = 0
KMC4 082302Z 19001KT 10/06 A3034 RMK A01 T00950059  RH  078%=      5-min Rain = 0
KMC4 082303Z 18001KT 10/06 A3034 RMK A01 T00950059  RH  078%=      5-min Rain = 0
KMC4 082304Z 18002KT 10/06 A3034 RMK A01 T00950059  RH  078%=      5-min Rain = 0
KMC4 082305Z 18003KT 10/06 A3034 RMK A01 T00950060  RH  079%=      5-min Rain = 0
KMC4 082306Z 18002KT 10/06 A3034 RMK A01 T00950059  RH  078%=      5-min Rain = 0
KMC4 082307Z 19002KT 10/06 A3034 RMK A01 T00950058  RH  078%=      5-min Rain = 0
KMC4 082308Z 18003KT 10/06 A3034 RMK A01 T00950060  RH  079%=      5-min Rain = 0
KMC4 082309Z 18002KT 10/06 A3033 RMK A01 T00960060  RH  079%=      5-min Rain = 0
KMC4 082310Z 18002KT 10/06 A3033 RMK A01 T00960059  RH  078%=      5-min Rain = 0
KMC4 082311Z 19003KT 10/06 A3033 RMK A01 T00950060  RH  079%=      5-min Rain = 0
KMC4 082312Z 18003KT 10/06 A3033 RMK A01 T00950060  RH  078%=      5-min Rain = 0
KMC4 082313Z 19003KT 10/06 A3033 RMK A01 T00950059  RH  078%=      5-min Rain = 0
KMC4 082314Z 20003KT 10/06 A3033 RMK A01 T00950062  RH  080%=      5-min Rain = 0
KMC4 082315Z 22003KT 10/06 A3033 RMK A01 T00960062  RH  080%=      5-min Rain = 0
KMC4 082316Z 21003KT 10/06 A3033 RMK A01 T00960061  RH  079%=      5-min Rain = 0
KMC4 082317Z 21002KT 10/06 A3033 RMK A01 T00960060  RH  078%=      5-min Rain = 0
KMC4 082318Z 21003KT 10/06 A3033 RMK A01 T00960059  RH  078%=      5-min Rain = 0
KMC4 082319Z 21003KT 10/06 A3033 RMK A01 T00950060  RH  079%=      5-min Rain = 0
KMC4 082320Z 21002KT 10/06 A3033 RMK A01 T00950058  RH  078%=      5-min Rain = 0
KMC4 082321Z 22002KT 10/06 A3033 RMK A01 T00950060  RH  078%=      5-min Rain = 0
KMC4 082322Z 22002KT 10/06 A3033 RMK A01 T00950058  RH  078%=      5-min Rain = 0
KMC4 082323Z 23002KT 10/06 A3034 RMK A01 T00950060  RH  079%=      5-min Rain = 0
KMC4 082324Z 22002KT 10/06 A3034 RMK A01 T00950059  RH  079%=      5-min Rain = 0
KMC4 082325Z 24003KT 10/06 A3034 RMK A01 T00950059  RH  078%=      5-min Rain = 0
KMC4 082326Z 25002KT 10/06 A3034 RMK A01 T00950058  RH  078%=      5-min Rain = 0
KMC4 082327Z 25002KT 10/06 A3034 RMK A01 T00950060  RH  079%=      5-min Rain = 0
KMC4 082328Z 24002KT 10/06 A3034 RMK A01 T00950060  RH  079%=      5-min Rain = 0
KMC4 082329Z 24003KT 10/06 A3034 RMK A01 T00950061  RH  079%=      5-min Rain = 0
KMC4 082330Z 24002KT 10/06 A3034 RMK A01 T00950059  RH  078%=      5-min Rain = 0
KMC4 082331Z 24003KT 10/06 A3034 RMK A01 T00950060  RH  079%=      5-min Rain = 0
KMC4 082332Z 23002KT 10/06 A3034 RMK A01 T00950060  RH  079%=      5-min Rain = 0
KMC4 082333Z 24002KT 10/06 A3034 RMK A01 T00950060  RH  079%=      5-min Rain = 0
KMC4 082334Z 23001KT 10/06 A3034 RMK A01 T00950058  RH  078%=      5-min Rain = 0
KMC4 082335Z 23000KT 10/06 A3034 RMK A01 T00950059  RH  078%=      5-min Rain = 0
KMC4 082336Z 21001KT 10/06 A3033 RMK A01 T00950059  RH  078%=      5-min Rain = 0
KMC4 082337Z 22001KT 10/06 A3033 RMK A01 T00950059  RH  079%=      5-min Rain = 0
KMC4 082338Z 22001KT 10/06 A3033 RMK A01 T00950059  RH  078%=      5-min Rain = 0
KMC4 082339Z 20001KT 10/06 A3033 RMK A01 T00950060  RH  079%=      5-min Rain = 0
KMC4 082340Z 23001KT 10/06 A3033 RMK A01 T00950061  RH  080%=      5-min Rain = 0
KMC4 082341Z 23001KT 10/06 A3034 RMK A01 T00950060  RH  079%=      5-min Rain = 0
KMC4 082342Z 23001KT 10/06 A3034 RMK A01 T00950058  RH  078%=      5-min Rain = 0
KMC4 082343Z 23001KT 09/06 A3034 RMK A01 T00940057  RH  078%=      5-min Rain = 0
KMC4 082344Z 21001KT 09/06 A3034 RMK A01 T00940059  RH  079%=      5-min Rain = 0
KMC4 082345Z 20001KT 09/06 A3034 RMK A01 T00940062  RH  080%=      5-min Rain = 0
KMC4 082346Z 20001KT 09/06 A3034 RMK A01 T00940060  RH  079%=      5-min Rain = 0
KMC4 082347Z 20001KT 09/06 A3034 RMK A01 T00940060  RH  079%=      5-min Rain = 0
KMC4 082348Z 20001KT 09/06 A3034 RMK A01 T00940058  RH  078%=      5-min Rain = 0
KMC4 082349Z 20002KT 09/06 A3034 RMK A01 T00940058  RH  078%=      5-min Rain = 0
KMC4 082350Z 20002KT 09/06 A3034 RMK A01 T00940060  RH  079%=      5-min Rain = 0
KMC4 082351Z 20002KT 09/06 A3034 RMK A01 T00940059  RH  079%=      5-min Rain = 0
KMC4 082352Z 20002KT 09/06 A3034 RMK A01 T00940059  RH  079%=      5-min Rain = 0
KMC4 082353Z 21002KT 09/06 A3034 RMK A01 T00940061  RH  080%=      5-min Rain = 0
KMC4 082354Z 19002KT 09/06 A3034 RMK A01 T00940061  RH  080%=      5-min Rain = 0
KMC4 082355Z 19001KT 09/06 A3033 RMK A01 T00940061  RH  080%=      5-min Rain = 0
KMC4 082356Z 19001KT 09/06 A3033 RMK A01 T00940061  RH  080%=      5-min Rain = 0
KMC4 082357Z 20001KT 09/06 A3034 RMK A01 T00940061  RH  080%=      5-min Rain = 0
KMC4 082358Z 20001KT 10/06 A3034 RMK A01 T00950061  RH  080%=      5-min Rain = 0
KMC4 082359Z 20000KT 09/06 A3034 RMK A01 T00940060  RH  079%=      5-min Rain = 0
KMC4 090000Z 00000KT 09/06 A3034 RMK A01 T00940061  RH  080%=      5-min Rain = 0
KMC4 090001Z 00000KT 09/06 A3033 RMK A01 T00940061  RH  080%=      5-min Rain = 0
KMC4 090002Z 19000KT 09/06 A3033 RMK A01 T00940061  RH  080%=      5-min Rain = 0
KMC4 090003Z 18001KT 09/06 A3033 RMK A01 T00940060  RH  079%=      5-min Rain = 0
KMC4 090004Z 18001KT 09/06 A3033 RMK A01 T00940060  RH  079%=      5-min Rain = 0
KMC4 090005Z 18002KT 09/06 A3033 RMK A01 T00940061  RH  080%=      5-min Rain = 0
KMC4 090006Z 18001KT 09/06 A3033 RMK A01 T00940059  RH  079%=      5-min Rain = 0
KMC4 090007Z 18001KT 09/06 A3033 RMK A01 T00940059  RH  079%=      5-min Rain = 0
KMC4 090008Z 18001KT 09/06 A3033 RMK A01 T00940060  RH  079%=      5-min Rain = 0
KMC4 090009Z 00000KT 09/06 A3033 RMK A01 T00940060  RH  079%=      5-min Rain = 0
KMC4 090010Z 00000KT 09/06 A3033 RMK A01 T00940058  RH  078%=      5-min Rain = 0
KMC4 090011Z 00000KT 09/06 A3033 RMK A01 T00930057  RH  078%=      5-min Rain = 0
KMC4 090012Z 00000KT 09/06 A3033 RMK A01 T00930058  RH  079%=      5-min Rain = 0
KMC4 090013Z 18000KT 09/06 A3033 RMK A01 T00930058  RH  079%=      5-min Rain = 0
KMC4 090014Z 18000KT 09/06 A3033 RMK A01 T00930059  RH  079%=      5-min Rain = 0
KMC4 090015Z 18001KT 09/06 A3033 RMK A01 T00940059  RH  079%=      5-min Rain = 0
KMC4 090016Z 18001KT 09/06 A3033 RMK A01 T00930058  RH  079%=      5-min Rain = 0
KMC4 090017Z 18001KT 09/06 A3033 RMK A01 T00930059  RH  079%=      5-min Rain = 0
KMC4 090018Z 18001KT 09/06 A3033 RMK A01 T00930060  RH  079%=      5-min Rain = 0
KMC4 090019Z 18001KT 09/06 A3033 RMK A01 T00940060  RH  079%=      5-min Rain = 0
KMC4 090020Z 18002KT 09/06 A3033 RMK A01 T00930060  RH  079%=      5-min Rain = 0
KMC4 090021Z 17002KT 09/06 A3033 RMK A01 T00930060  RH  080%=      5-min Rain = 0
KMC4 090022Z 18002KT 09/06 A3033 RMK A01 T00930061  RH  080%=      5-min Rain = 0
KMC4 090023Z 18001KT 09/06 A3033 RMK A01 T00930062  RH  081%=      5-min Rain = 0
KMC4 090024Z 19001KT 09/06 A3033 RMK A01 T00930062  RH  081%=      5-min Rain = 0
KMC4 090025Z 20001KT 09/06 A3033 RMK A01 T00930063  RH  081%=      5-min Rain = 0
KMC4 090026Z 20001KT 09/06 A3033 RMK A01 T00930064  RH  082%=      5-min Rain = 0
KMC4 090027Z 19001KT 09/06 A3033 RMK A01 T00930063  RH  082%=      5-min Rain = 0
KMC4 090028Z 18001KT 09/06 A3033 RMK A01 T00930063  RH  082%=      5-min Rain = 0
KMC4 090029Z 18001KT 09/06 A3033 RMK A01 T00930062  RH  081%=      5-min Rain = 0
KMC4 090030Z 17001KT 09/06 A3033 RMK A01 T00920063  RH  082%=      5-min Rain = 0
KMC4 090031Z 17001KT 09/06 A3033 RMK A01 T00920063  RH  082%=      5-min Rain = 0
KMC4 090032Z 17001KT 09/06 A3033 RMK A01 T00920063  RH  082%=      5-min Rain = 0
KMC4 090033Z 17000KT 09/06 A3033 RMK A01 T00920064  RH  082%=      5-min Rain = 0
KMC4 090034Z 00000KT 09/06 A3033 RMK A01 T00920063  RH  082%=      5-min Rain = 0
KMC4 090035Z 00000KT 09/06 A3033 RMK A01 T00920063  RH  082%=      5-min Rain = 0
KMC4 090036Z 00000KT 09/06 A3033 RMK A01 T00920064  RH  082%=      5-min Rain = 0
KMC4 090037Z 00000KT 09/06 A3033 RMK A01 T00920062  RH  081%=      5-min Rain = 0
KMC4 090038Z 00000KT 09/06 A3033 RMK A01 T00920060  RH  080%=      5-min Rain = 0
KMC4 090039Z 00000KT 09/06 A3033 RMK A01 T00920062  RH  081%=      5-min Rain = 0
KMC4 090040Z 00000KT 09/06 A3033 RMK A01 T00920061  RH  081%=      5-min Rain = 0
KMC4 090041Z 00000KT 09/06 A3033 RMK A01 T00920060  RH  080%=      5-min Rain = 0
KMC4 090042Z 00000KT 09/06 A3033 RMK A01 T00920061  RH  081%=      5-min Rain = 0
KMC4 090043Z 17000KT 09/06 A3033 RMK A01 T00920064  RH  082%=      5-min Rain = 0
KMC4 090044Z 17001KT 09/06 A3033 RMK A01 T00920063  RH  082%=      5-min Rain = 0
KMC4 090045Z 14001KT 09/06 A3033 RMK A01 T00930062  RH  081%=      5-min Rain = 0
KMC4 090046Z 15002KT 09/06 A3033 RMK A01 T00920063  RH  082%=      5-min Rain = 0
KMC4 090047Z 15001KT 09/06 A3033 RMK A01 T00920063  RH  082%=      5-min Rain = 0
KMC4 090048Z 15001KT 09/06 A3033 RMK A01 T00920064  RH  082%=      5-min Rain = 0
KMC4 090049Z 15002KT 09/07 A3033 RMK A01 T00920066  RH  084%=      5-min Rain = 0
KMC4 090050Z 16002KT 09/07 A3033 RMK A01 T00920067  RH  084%=      5-min Rain = 0
KMC4 090051Z 15002KT 09/07 A3033 RMK A01 T00920067  RH  084%=      5-min Rain = 0
KMC4 090052Z 15002KT 09/07 A3033 RMK A01 T00920065  RH  083%=      5-min Rain = 0
KMC4 090053Z 15002KT 09/07 A3033 RMK A01 T00920065  RH  083%=      5-min Rain = 0
KMC4 090054Z 15001KT 09/07 A3033 RMK A01 T00920066  RH  084%=      5-min Rain = 0
KMC4 090055Z 14001KT 09/07 A3033 RMK A01 T00920067  RH  084%=      5-min Rain = 0
KMC4 090056Z 13001KT 09/07 A3033 RMK A01 T00920068  RH  085%=      5-min Rain = 0
KMC4 090057Z 13001KT 09/07 A3033 RMK A01 T00920068  RH  085%=      5-min Rain = 0
KMC4 090058Z 13001KT 09/07 A3033 RMK A01 T00910067  RH  085%=      5-min Rain = 0
KMC4 090059Z 14001KT 09/07 A3033 RMK A01 T00910067  RH  085%=      5-min Rain = 0
KMC4 090100Z 15001KT 09/07 A3033 RMK A01 T00920068  RH  085%=      5-min Rain = 0
KMC4 090101Z 16002KT 09/07 A3033 RMK A01 T00910068  RH  086%=      5-min Rain = 0
KMC4 090102Z 17001KT 09/07 A3033 RMK A01 T00910068  RH  086%=      5-min Rain = 0
KMC4 090103Z 16001KT 09/07 A3033 RMK A01 T00910068  RH  085%=      5-min Rain = 0
KMC4 090104Z 16001KT 09/07 A3033 RMK A01 T00910068  RH  086%=      5-min Rain = 0
KMC4 090105Z 15001KT 09/07 A3033 RMK A01 T00910068  RH  086%=      5-min Rain = 0
KMC4 090106Z 15001KT 09/07 A3033 RMK A01 T00910069  RH  086%=      5-min Rain = 0
KMC4 090107Z 15002KT 09/07 A3033 RMK A01 T00910069  RH  086%=      5-min Rain = 0
KMC4 090108Z 15002KT 09/07 A3033 RMK A01 T00910070  RH  087%=      5-min Rain = 0
KMC4 090109Z 15002KT 09/07 A3033 RMK A01 T00900069  RH  087%=      5-min Rain = 0
KMC4 090110Z 15002KT 09/07 A3033 RMK A01 T00910071  RH  087%=      5-min Rain = 0
KMC4 090111Z 15002KT 09/07 A3033 RMK A01 T00900071  RH  088%=      5-min Rain = 0
KMC4 090112Z 15001KT 09/07 A3033 RMK A01 T00900071  RH  088%=      5-min Rain = 0
KMC4 090113Z 15001KT 09/07 A3033 RMK A01 T00900071  RH  088%=      5-min Rain = 0
KMC4 090114Z 15001KT 09/07 A3033 RMK A01 T00900071  RH  088%=      5-min Rain = 0
KMC4 090115Z 26000KT 09/07 A3033 RMK A01 T00890070  RH  088%=      5-min Rain = 0
KMC4 090116Z 26000KT 09/07 A3033 RMK A01 T00890070  RH  088%=      5-min Rain = 0
KMC4 090117Z 21000KT 09/07 A3033 RMK A01 T00890070  RH  088%=      5-min Rain = 0
KMC4 090118Z 21001KT 09/07 A3033 RMK A01 T00890070  RH  088%=      5-min Rain = 0
KMC4 090119Z 21001KT 09/07 A3033 RMK A01 T00890070  RH  088%=      5-min Rain = 0
KMC4 090120Z 17002KT 09/07 A3033 RMK A01 T00890071  RH  088%=      5-min Rain = 0
KMC4 090121Z 17002KT 09/07 A3033 RMK A01 T00890071  RH  088%=      5-min Rain = 0
KMC4 090122Z 17002KT 09/07 A3033 RMK A01 T00890071  RH  089%=      5-min Rain = 0
KMC4 090123Z 17002KT 09/07 A3033 RMK A01 T00890071  RH  089%=      5-min Rain = 0
KMC4 090124Z 17002KT 09/07 A3033 RMK A01 T00880070  RH  089%=      5-min Rain = 0
KMC4 090125Z 17002KT 09/07 A3033 RMK A01 T00880070  RH  088%=      5-min Rain = 0
KMC4 090126Z 17002KT 09/07 A3034 RMK A01 T00880070  RH  088%=      5-min Rain = 0
KMC4 090127Z 17002KT 09/07 A3034 RMK A01 T00880069  RH  088%=      5-min Rain = 0
KMC4 090128Z 17002KT 09/07 A3034 RMK A01 T00880069  RH  088%=      5-min Rain = 0
KMC4 090129Z 17002KT 09/07 A3034 RMK A01 T00880068  RH  088%=      5-min Rain = 0
KMC4 090130Z 18002KT 09/07 A3034 RMK A01 T00880068  RH  087%=      5-min Rain = 0
KMC4 090131Z 18001KT 09/07 A3034 RMK A01 T00880068  RH  087%=      5-min Rain = 0
KMC4 090132Z 18001KT 09/07 A3034 RMK A01 T00880068  RH  087%=      5-min Rain = 0
KMC4 090133Z 00000KT 09/07 A3034 RMK A01 T00880068  RH  088%=      5-min Rain = 0
KMC4 090134Z 18000KT 09/07 A3034 RMK A01 T00880068  RH  088%=      5-min Rain = 0
KMC4 090135Z 00000KT 09/07 A3034 RMK A01 T00880068  RH  087%=      5-min Rain = 0
KMC4 090136Z 13000KT 09/07 A3034 RMK A01 T00880068  RH  087%=      5-min Rain = 0
KMC4 090137Z 13000KT 09/07 A3034 RMK A01 T00880068  RH  087%=      5-min Rain = 0
KMC4 090138Z 00000KT 09/07 A3034 RMK A01 T00880068  RH  088%=      5-min Rain = 0
KMC4 090139Z 00000KT 09/07 A3034 RMK A01 T00880069  RH  088%=      5-min Rain = 0
KMC4 090140Z 00000KT 09/07 A3034 RMK A01 T00880069  RH  088%=      5-min Rain = 0
KMC4 090141Z 00000KT 09/07 A3034 RMK A01 T00880070  RH  088%=      5-min Rain = 0
KMC4 090142Z 12000KT 09/07 A3034 RMK A01 T00880069  RH  088%=      5-min Rain = 0
KMC4 090143Z 13001KT 09/07 A3034 RMK A01 T00880070  RH  089%=      5-min Rain = 0
KMC4 090144Z 15001KT 09/07 A3034 RMK A01 T00880071  RH  089%=      5-min Rain = 0
KMC4 090145Z 17001KT 09/07 A3034 RMK A01 T00880069  RH  088%=      5-min Rain = 0
KMC4 090146Z 17000KT 09/07 A3035 RMK A01 T00870069  RH  088%=      5-min Rain = 0
KMC4 090147Z 18000KT 09/07 A3035 RMK A01 T00870069  RH  088%=      5-min Rain = 0
KMC4 090148Z 18000KT 09/07 A3035 RMK A01 T00870069  RH  088%=      5-min Rain = 0
KMC4 090149Z 16001KT 09/07 A3035 RMK A01 T00870069  RH  088%=      5-min Rain = 0
KMC4 090150Z 13001KT 09/07 A3035 RMK A01 T00870069  RH  088%=      5-min Rain = 0
KMC4 090151Z 15001KT 09/07 A3035 RMK A01 T00870068  RH  088%=      5-min Rain = 0
KMC4 090152Z 14001KT 09/07 A3035 RMK A01 T00870067  RH  087%=      5-min Rain = 0
KMC4 090153Z 12001KT 09/07 A3035 RMK A01 T00880068  RH  088%=      5-min Rain = 0
KMC4 090154Z 12001KT 09/07 A3034 RMK A01 T00870068  RH  088%=      5-min Rain = 0
KMC4 090155Z 12001KT 09/07 A3034 RMK A01 T00880069  RH  088%=      5-min Rain = 0
KMC4 090156Z 11001KT 09/07 A3034 RMK A01 T00870068  RH  088%=      5-min Rain = 0
KMC4 090157Z 11001KT 09/07 A3034 RMK A01 T00870069  RH  088%=      5-min Rain = 0
KMC4 090158Z 11001KT 09/07 A3034 RMK A01 T00870070  RH  089%=      5-min Rain = 0
KMC4 090159Z 10001KT 09/07 A3034 RMK A01 T00870070  RH  089%=      5-min Rain = 0
KMC4 090200Z 09001KT 09/07 A3034 RMK A01 T00870069  RH  089%=      5-min Rain = 0
KMC4 090201Z 10001KT 09/07 A3034 RMK A01 T00860067  RH  088%=      5-min Rain = 0
KMC4 090202Z 10002KT 09/07 A3034 RMK A01 T00860066  RH  087%=      5-min Rain = 0
KMC4 090203Z 11002KT 09/07 A3034 RMK A01 T00870066  RH  087%=      5-min Rain = 0
KMC4 090204Z 11002KT 09/07 A3034 RMK A01 T00860066  RH  087%=      5-min Rain = 0
KMC4 090205Z 12002KT 09/07 A3034 RMK A01 T00860066  RH  087%=      5-min Rain = 0
KMC4 090206Z 12002KT 09/07 A3034 RMK A01 T00860066  RH  087%=      5-min Rain = 0
KMC4 090207Z 12002KT 09/07 A3034 RMK A01 T00860066  RH  087%=      5-min Rain = 0
KMC4 090208Z 12002KT 09/07 A3034 RMK A01 T00870067  RH  087%=      5-min Rain = 0
KMC4 090209Z 12002KT 09/07 A3034 RMK A01 T00860067  RH  087%=      5-min Rain = 0
KMC4 090210Z 12002KT 09/07 A3034 RMK A01 T00860067  RH  088%=      5-min Rain = 0
KMC4 090211Z 12002KT 09/07 A3034 RMK A01 T00860068  RH  088%=      5-min Rain = 0
KMC4 090212Z 12002KT 09/07 A3034 RMK A01 T00860068  RH  089%=      5-min Rain = 0
KMC4 090213Z 12002KT 09/07 A3034 RMK A01 T00860069  RH  089%=      5-min Rain = 0
KMC4 090214Z 12002KT 09/07 A3034 RMK A01 T00860069  RH  089%=      5-min Rain = 0
KMC4 090215Z 11002KT 09/07 A3034 RMK A01 T00860069  RH  089%=      5-min Rain = 0
KMC4 090216Z 11002KT 09/07 A3034 RMK A01 T00860068  RH  088%=      5-min Rain = 0
KMC4 090217Z 11002KT 09/07 A3034 RMK A01 T00850066  RH  088%=      5-min Rain = 0
KMC4 090218Z 11002KT 09/07 A3034 RMK A01 T00860066  RH  088%=      5-min Rain = 0
KMC4 090219Z 11002KT 09/07 A3034 RMK A01 T00860066  RH  087%=      5-min Rain = 0
KMC4 090220Z 10002KT 09/07 A3034 RMK A01 T00850065  RH  087%=      5-min Rain = 0
KMC4 090221Z 09003KT 09/07 A3034 RMK A01 T00860065  RH  087%=      5-min Rain = 0
KMC4 090222Z 09003KT 09/07 A3034 RMK A01 T00860066  RH  088%=      5-min Rain = 0
KMC4 090223Z 10003KT 09/07 A3034 RMK A01 T00850066  RH  088%=      5-min Rain = 0
KMC4 090224Z 10003KT 09/07 A3034 RMK A01 T00850066  RH  088%=      5-min Rain = 0
KMC4 090225Z 10003KT 09/07 A3034 RMK A01 T00850066  RH  088%=      5-min Rain = 0
KMC4 090226Z 09003KT 09/07 A3034 RMK A01 T00850066  RH  087%=      5-min Rain = 0
KMC4 090227Z 09003KT 09/07 A3034 RMK A01 T00850065  RH  087%=      5-min Rain = 0
KMC4 090228Z 09003KT 09/07 A3034 RMK A01 T00850066  RH  088%=      5-min Rain = 0
KMC4 090229Z 08003KT 09/07 A3034 RMK A01 T00850067  RH  088%=      5-min Rain = 0
KMC4 090230Z 09003KT 09/07 A3034 RMK A01 T00850067  RH  088%=      5-min Rain = 0
KMC4 090231Z 09003KT 09/07 A3034 RMK A01 T00850067  RH  088%=      5-min Rain = 0
KMC4 090232Z 08003KT 09/07 A3034 RMK A01 T00860067  RH  088%=      5-min Rain = 0
KMC4 090233Z 08003KT 09/07 A3034 RMK A01 T00850067  RH  088%=      5-min Rain = 0
KMC4 090234Z 08003KT 09/07 A3034 RMK A01 T00850068  RH  089%=      5-min Rain = 0
KMC4 090235Z 08003KT 09/07 A3034 RMK A01 T00850068  RH  089%=      5-min Rain = 0
KMC4 090236Z 08003KT 09/07 A3034 RMK A01 T00850068  RH  089%=      5-min Rain = 0
KMC4 090237Z 09003KT 09/07 A3034 RMK A01 T00850068  RH  089%=      5-min Rain = 0
KMC4 090238Z 09002KT 09/07 A3034 RMK A01 T00860069  RH  089%=      5-min Rain = 0
KMC4 090239Z 09002KT 09/07 A3034 RMK A01 T00850068  RH  089%=      5-min Rain = 0
KMC4 090240Z 09003KT 09/07 A3034 RMK A01 T00860069  RH  089%=      5-min Rain = 0
KMC4 090241Z 08003KT 09/07 A3034 RMK A01 T00860068  RH  089%=      5-min Rain = 0
KMC4 090242Z 08003KT 09/07 A3034 RMK A01 T00850068  RH  089%=      5-min Rain = 0
KMC4 090243Z 08003KT 09/07 A3034 RMK A01 T00850069  RH  089%=      5-min Rain = 0
KMC4 090244Z 09003KT 09/07 A3034 RMK A01 T00850068  RH  089%=      5-min Rain = 0
KMC4 090245Z 09003KT 09/07 A3034 RMK A01 T00850068  RH  089%=      5-min Rain = 0
KMC4 090246Z 09003KT 09/07 A3034 RMK A01 T00850068  RH  089%=      5-min Rain = 0
KMC4 090247Z 08003KT 09/07 A3034 RMK A01 T00850067  RH  088%=      5-min Rain = 0
KMC4 090248Z 08003KT 09/07 A3034 RMK A01 T00850066  RH  088%=      5-min Rain = 0
KMC4 090249Z 08003KT 09/07 A3034 RMK A01 T00850067  RH  089%=      5-min Rain = 0
KMC4 090250Z 08002KT 09/07 A3034 RMK A01 T00850067  RH  089%=      5-min Rain = 0
KMC4 090251Z 09002KT 09/07 A3034 RMK A01 T00850067  RH  089%=      5-min Rain = 0
KMC4 090252Z 10002KT 09/07 A3034 RMK A01 T00850068  RH  089%=      5-min Rain = 0
KMC4 090253Z 10002KT 09/07 A3034 RMK A01 T00850067  RH  089%=      5-min Rain = 0
KMC4 090254Z 10003KT 08/07 A3034 RMK A01 T00840066  RH  089%=      5-min Rain = 0
KMC4 090255Z 09003KT 08/07 A3034 RMK A01 T00840066  RH  088%=      5-min Rain = 0
KMC4 090256Z 09003KT 08/07 A3034 RMK A01 T00840066  RH  088%=      5-min Rain = 0
KMC4 090257Z 08003KT 08/07 A3034 RMK A01 T00840065  RH  088%=      5-min Rain = 0
KMC4 090258Z 09003KT 08/07 A3034 RMK A01 T00840066  RH  088%=      5-min Rain = 0
KMC4 090259Z 09003KT 08/07 A3034 RMK A01 T00840066  RH  089%=      5-min Rain = 0
KMC4 090300Z 10003KT 08/07 A3034 RMK A01 T00840066  RH  089%=      5-min Rain = 0
KMC4 090301Z 10004KT 08/07 A3034 RMK A01 T00840066  RH  088%=      5-min Rain = 0
KMC4 090302Z 10003KT 08/07 A3034 RMK A01 T00840066  RH  089%=      5-min Rain = 0
KMC4 090303Z 09003KT 08/07 A3034 RMK A01 T00840066  RH  089%=      5-min Rain = 0
KMC4 090304Z 09003KT 08/07 A3034 RMK A01 T00840065  RH  088%=      5-min Rain = 0
KMC4 090305Z 10003KT 08/07 A3034 RMK A01 T00830065  RH  088%=      5-min Rain = 0
KMC4 090306Z 10003KT 08/07 A3034 RMK A01 T00830065  RH  088%=      5-min Rain = 0
KMC4 090307Z 11004KT 08/06 A3034 RMK A01 T00830064  RH  088%=      5-min Rain = 0
KMC4 090308Z 11003KT 08/06 A3034 RMK A01 T00830063  RH  087%=      5-min Rain = 0
KMC4 090309Z 11003KT 08/06 A3034 RMK A01 T00830063  RH  087%=      5-min Rain = 0
KMC4 090310Z 10003KT 08/06 A3034 RMK A01 T00830064  RH  088%=      5-min Rain = 0
KMC4 090311Z 09003KT 08/06 A3034 RMK A01 T00830064  RH  088%=      5-min Rain = 0
KMC4 090312Z 09003KT 08/06 A3034 RMK A01 T00830063  RH  087%=      5-min Rain = 0
KMC4 090313Z 10003KT 08/06 A3034 RMK A01 T00830063  RH  088%=      5-min Rain = 0
KMC4 090314Z 11003KT 08/06 A3034 RMK A01 T00830064  RH  088%=      5-min Rain = 0
KMC4 090315Z 11002KT 08/06 A3034 RMK A01 T00830063  RH  087%=      5-min Rain = 0
KMC4 090316Z 11002KT 08/06 A3034 RMK A01 T00830063  RH  087%=      5-min Rain = 0
KMC4 090317Z 10002KT 08/06 A3034 RMK A01 T00830064  RH  088%=      5-min Rain = 0
KMC4 090318Z 09002KT 08/06 A3034 RMK A01 T00830064  RH  088%=      5-min Rain = 0
KMC4 090319Z 09002KT 08/06 A3034 RMK A01 T00830064  RH  088%=      5-min Rain = 0
KMC4 090320Z 09002KT 08/06 A3034 RMK A01 T00830063  RH  088%=      5-min Rain = 0
KMC4 090321Z 10002KT 08/06 A3034 RMK A01 T00830064  RH  088%=      5-min Rain = 0
KMC4 090322Z 11002KT 08/06 A3034 RMK A01 T00830064  RH  088%=      5-min Rain = 0
KMC4 090323Z 12002KT 08/06 A3034 RMK A01 T00820064  RH  088%=      5-min Rain = 0
KMC4 090324Z 12002KT 08/07 A3034 RMK A01 T00820065  RH  089%=      5-min Rain = 0
KMC4 090325Z 12001KT 08/07 A3034 RMK A01 T00820065  RH  089%=      5-min Rain = 0
KMC4 090326Z 11001KT 08/07 A3034 RMK A01 T00820065  RH  089%=      5-min Rain = 0
KMC4 090327Z 10002KT 08/07 A3035 RMK A01 T00820065  RH  089%=      5-min Rain = 0
KMC4 090328Z 08001KT 08/07 A3035 RMK A01 T00810065  RH  090%=      5-min Rain = 0
KMC4 090329Z 07002KT 08/07 A3035 RMK A01 T00810065  RH  090%=      5-min Rain = 0
KMC4 090330Z 07002KT 08/07 A3035 RMK A01 T00810065  RH  089%=      5-min Rain = 0
KMC4 090331Z 07003KT 08/06 A3035 RMK A01 T00810064  RH  089%=      5-min Rain = 0
KMC4 090332Z 07003KT 08/06 A3034 RMK A01 T00810064  RH  089%=      5-min Rain = 0
KMC4 090333Z 07003KT 08/06 A3034 RMK A01 T00810063  RH  089%=      5-min Rain = 0
KMC4 090334Z 07002KT 08/06 A3034 RMK A01 T00810063  RH  089%=      5-min Rain = 0
KMC4 090335Z 06003KT 08/06 A3034 RMK A01 T00810064  RH  089%=      5-min Rain = 0
KMC4 090336Z 06003KT 08/06 A3034 RMK A01 T00810064  RH  089%=      5-min Rain = 0
KMC4 090337Z 06003KT 08/06 A3034 RMK A01 T00810064  RH  089%=      5-min Rain = 0
KMC4 090338Z 06003KT 08/06 A3034 RMK A01 T00810064  RH  089%=      5-min Rain = 0
KMC4 090339Z 06003KT 08/06 A3034 RMK A01 T00810064  RH  089%=      5-min Rain = 0
KMC4 090340Z 06003KT 08/07 A3034 RMK A01 T00820065  RH  089%=      5-min Rain = 0
KMC4 090341Z 07003KT 08/07 A3034 RMK A01 T00820065  RH  089%=      5-min Rain = 0
KMC4 090342Z 08003KT 08/07 A3034 RMK A01 T00820065  RH  089%=      5-min Rain = 0
KMC4 090343Z 08003KT 08/07 A3034 RMK A01 T00820065  RH  089%=      5-min Rain = 0
KMC4 090344Z 08003KT 08/07 A3034 RMK A01 T00820065  RH  089%=      5-min Rain = 0
KMC4 090345Z 08003KT 08/07 A3034 RMK A01 T00820065  RH  089%=      5-min Rain = 0
KMC4 090346Z 07003KT 08/07 A3034 RMK A01 T00820065  RH  089%=      5-min Rain = 0
KMC4 090347Z 06003KT 08/07 A3035 RMK A01 T00820065  RH  089%=      5-min Rain = 0
KMC4 090348Z 06003KT 08/07 A3034 RMK A01 T00820065  RH  089%=      5-min Rain = 0
KMC4 090349Z 06003KT 08/07 A3034 RMK A01 T00820065  RH  089%=      5-min Rain = 0
KMC4 090350Z 07003KT 08/07 A3034 RMK A01 T00820065  RH  089%=      5-min Rain = 0
KMC4 090351Z 07003KT 08/07 A3034 RMK A01 T00820065  RH  089%=      5-min Rain = 0
KMC4 090352Z 07003KT 08/07 A3034 RMK A01 T00820065  RH  089%=      5-min Rain = 0
KMC4 090353Z 07003KT 08/07 A3034 RMK A01 T00820065  RH  089%=      5-min Rain = 0
KMC4 090354Z 07003KT 08/07 A3034 RMK A01 T00820066  RH  089%=      5-min Rain = 0
KMC4 090355Z 06003KT 08/07 A3035 RMK A01 T00820066  RH  090%=      5-min Rain = 0
KMC4 090356Z 06003KT 08/07 A3035 RMK A01 T00820066  RH  090%=      5-min Rain = 0
KMC4 090357Z 06003KT 08/07 A3035 RMK A01 T00820066  RH  090%=      5-min Rain = 0
KMC4 090358Z 06003KT 08/07 A3035 RMK A01 T00820066  RH  090%=      5-min Rain = 0
KMC4 090359Z 06003KT 08/07 A3035 RMK A01 T00820066  RH  090%=      5-min Rain = 0
KMC4 090400Z 06003KT 08/07 A3035 RMK A01 T00820066  RH  090%=      5-min Rain = 0
KMC4 090401Z 06003KT 08/07 A3035 RMK A01 T00820067  RH  090%=      5-min Rain = 0
KMC4 090402Z 07003KT 08/07 A3035 RMK A01 T00830067  RH  090%=      5-min Rain = 0
KMC4 090403Z 07002KT 08/07 A3035 RMK A01 T00820067  RH  090%=      5-min Rain = 0
KMC4 090404Z 08002KT 08/07 A3035 RMK A01 T00820066  RH  090%=      5-min Rain = 0
KMC4 090405Z 07002KT 08/07 A3035 RMK A01 T00820066  RH  090%=      5-min Rain = 0
KMC4 090406Z 07002KT 08/07 A3035 RMK A01 T00820066  RH  090%=      5-min Rain = 0
KMC4 090407Z 07002KT 08/07 A3035 RMK A01 T00820066  RH  090%=      5-min Rain = 0
KMC4 090408Z 07002KT 08/07 A3035 RMK A01 T00820066  RH  090%=      5-min Rain = 0
KMC4 090409Z 08001KT 08/07 A3035 RMK A01 T00820066  RH  089%=      5-min Rain = 0
KMC4 090410Z 11001KT 08/07 A3035 RMK A01 T00830066  RH  089%=      5-min Rain = 0
KMC4 090411Z 13001KT 08/07 A3035 RMK A01 T00830067  RH  090%=      5-min Rain = 0
KMC4 090412Z 15002KT 08/07 A3034 RMK A01 T00830067  RH  090%=      5-min Rain = 0
KMC4 090413Z 13002KT 08/07 A3034 RMK A01 T00820067  RH  090%=      5-min Rain = 0
KMC4 090414Z 11002KT 08/07 A3034 RMK A01 T00810067  RH  091%=      5-min Rain = 0
KMC4 090415Z 11002KT 08/07 A3035 RMK A01 T00810067  RH  091%=      5-min Rain = 0
KMC4 090416Z 10002KT 08/07 A3035 RMK A01 T00810068  RH  091%=      5-min Rain = 0
KMC4 090417Z 09002KT 08/07 A3035 RMK A01 T00810068  RH  092%=      5-min Rain = 0
KMC4 090418Z 09002KT 08/07 A3035 RMK A01 T00800068  RH  092%=      5-min Rain = 0
KMC4 090419Z 09001KT 08/07 A3035 RMK A01 T00800068  RH  092%=      5-min Rain = 0
KMC4 090420Z 09001KT 08/07 A3035 RMK A01 T00800067  RH  092%=      5-min Rain = 0
KMC4 090421Z 10001KT 08/07 A3035 RMK A01 T00800067  RH  092%=      5-min Rain = 0
KMC4 090422Z 10001KT 08/07 A3035 RMK A01 T00800068  RH  092%=      5-min Rain = 0
KMC4 090423Z 10001KT 08/07 A3035 RMK A01 T00800068  RH  092%=      5-min Rain = 0
KMC4 090424Z 10001KT 08/07 A3035 RMK A01 T00800068  RH  092%=      5-min Rain = 0
KMC4 090425Z 10000KT 08/07 A3035 RMK A01 T00790068  RH  092%=      5-min Rain = 0
KMC4 090426Z 00000KT 08/07 A3036 RMK A01 T00790068  RH  092%=      5-min Rain = 0
KMC4 090427Z 00000KT 08/07 A3036 RMK A01 T00790068  RH  093%=      5-min Rain = 0
KMC4 090428Z 19001KT 08/07 A3036 RMK A01 T00790068  RH  093%=      5-min Rain = 0
KMC4 090429Z 20001KT 08/07 A3036 RMK A01 T00790068  RH  093%=      5-min Rain = 0
KMC4 090430Z 19001KT 08/07 A3036 RMK A01 T00790068  RH  093%=      5-min Rain = 0
KMC4 090431Z 18002KT 08/07 A3036 RMK A01 T00780068  RH  093%=      5-min Rain = 0
KMC4 090432Z 18002KT 08/07 A3036 RMK A01 T00780068  RH  093%=      5-min Rain = 0
KMC4 090433Z 18002KT 08/07 A3036 RMK A01 T00770068  RH  094%=      5-min Rain = 0
KMC4 090434Z 17002KT 08/07 A3036 RMK A01 T00770068  RH  094%=      5-min Rain = 0
KMC4 090435Z 18002KT 08/07 A3036 RMK A01 T00770068  RH  094%=      5-min Rain = 0
KMC4 090436Z 18002KT 08/07 A3036 RMK A01 T00760067  RH  094%=      5-min Rain = 0
KMC4 090437Z 18001KT 08/07 A3036 RMK A01 T00760068  RH  094%=      5-min Rain = 0
KMC4 090438Z 18001KT 08/07 A3036 RMK A01 T00760068  RH  095%=      5-min Rain = 0
KMC4 090439Z 19001KT 08/07 A3036 RMK A01 T00760068  RH  095%=      5-min Rain = 0
KMC4 090440Z 19001KT 08/07 A3036 RMK A01 T00760068  RH  095%=      5-min Rain = 0
KMC4 090441Z 19001KT 08/07 A3036 RMK A01 T00760068  RH  095%=      5-min Rain = 0
KMC4 090442Z 19001KT 08/07 A3036 RMK A01 T00760068  RH  095%=      5-min Rain = 0
KMC4 090443Z 19001KT 08/07 A3036 RMK A01 T00760068  RH  095%=      5-min Rain = 0
KMC4 090444Z 18001KT 08/07 A3036 RMK A01 T00760068  RH  095%=      5-min Rain = 0
KMC4 090445Z 18000KT 08/07 A3036 RMK A01 T00760068  RH  095%=      5-min Rain = 0
KMC4 090446Z 00000KT 08/07 A3036 RMK A01 T00760068  RH  095%=      5-min Rain = 0
KMC4 090447Z 00000KT 08/07 A3036 RMK A01 T00760068  RH  095%=      5-min Rain = 0
KMC4 090448Z 00000KT 08/07 A3036 RMK A01 T00760068  RH  095%=      5-min Rain = 0
KMC4 090449Z 00000KT 08/07 A3036 RMK A01 T00760068  RH  095%=      5-min Rain = 0
KMC4 090450Z 10001KT 08/07 A3036 RMK A01 T00760068  RH  095%=      5-min Rain = 0
KMC4 090451Z 08000KT 08/07 A3036 RMK A01 T00760068  RH  095%=      5-min Rain = 0
KMC4 090452Z 04000KT 08/07 A3036 RMK A01 T00760069  RH  095%=      5-min Rain = 0
KMC4 090453Z 07000KT 08/07 A3036 RMK A01 T00760069  RH  095%=      5-min Rain = 0
KMC4 090454Z 10000KT 08/07 A3036 RMK A01 T00770069  RH  095%=      5-min Rain = 0
KMC4 090455Z 10001KT 08/07 A3036 RMK A01 T00770068  RH  095%=      5-min Rain = 0
KMC4 090456Z 12001KT 08/07 A3036 RMK A01 T00770069  RH  094%=      5-min Rain = 0
KMC4 090457Z 11001KT 08/07 A3036 RMK A01 T00770068  RH  094%=      5-min Rain = 0
KMC4 090458Z 12001KT 08/07 A3035 RMK A01 T00770068  RH  094%=      5-min Rain = 0
KMC4 090459Z 14000KT 08/07 A3035 RMK A01 T00770068  RH  094%=      5-min Rain = 0
KMC4 090500Z 14001KT 08/07 A3035 RMK A01 T00770067  RH  093%=      5-min Rain = 0
KMC4 090501Z 13001KT 08/07 A3035 RMK A01 T00770067  RH  093%=      5-min Rain = 0
KMC4 090502Z 14001KT 08/07 A3035 RMK A01 T00780066  RH  092%=      5-min Rain = 0
KMC4 090503Z 13001KT 08/07 A3035 RMK A01 T00780066  RH  092%=      5-min Rain = 0
KMC4 090504Z 14001KT 08/07 A3035 RMK A01 T00780066  RH  092%=      5-min Rain = 0
KMC4 090505Z 12000KT 08/07 A3035 RMK A01 T00790066  RH  091%=      5-min Rain = 0
KMC4 090506Z 12001KT 08/07 A3035 RMK A01 T00790066  RH  091%=      5-min Rain = 0
KMC4 090507Z 11001KT 08/07 A3035 RMK A01 T00790065  RH  091%=      5-min Rain = 0
KMC4 090508Z 12002KT 08/07 A3035 RMK A01 T00800065  RH  091%=      5-min Rain = 0
KMC4 090509Z 11002KT 08/07 A3035 RMK A01 T00800065  RH  090%=      5-min Rain = 0
KMC4 090510Z 11001KT 08/07 A3035 RMK A01 T00800065  RH  090%=      5-min Rain = 0
KMC4 090511Z 11001KT 08/07 A3035 RMK A01 T00800066  RH  091%=      5-min Rain = 0
KMC4 090512Z 13001KT 08/07 A3035 RMK A01 T00800066  RH  091%=      5-min Rain = 0
KMC4 090513Z 13002KT 08/07 A3035 RMK A01 T00800066  RH  091%=      5-min Rain = 0
KMC4 090514Z 13002KT 08/07 A3035 RMK A01 T00800065  RH  091%=      5-min Rain = 0
KMC4 090515Z 12002KT 08/07 A3035 RMK A01 T00800065  RH  090%=      5-min Rain = 0
KMC4 090516Z 11003KT 08/06 A3035 RMK A01 T00800064  RH  090%=      5-min Rain = 0
KMC4 090517Z 11002KT 08/07 A3035 RMK A01 T00800065  RH  090%=      5-min Rain = 0
KMC4 090518Z 11002KT 08/07 A3035 RMK A01 T00800065  RH  090%=      5-min Rain = 0
KMC4 090519Z 10002KT 08/07 A3035 RMK A01 T00800065  RH  090%=      5-min Rain = 0
KMC4 090520Z 10002KT 08/07 A3035 RMK A01 T00800065  RH  090%=      5-min Rain = 0
KMC4 090521Z 09002KT 08/07 A3035 RMK A01 T00810065  RH  090%=      5-min Rain = 0
KMC4 090522Z 10002KT 08/07 A3035 RMK A01 T00800065  RH  090%=      5-min Rain = 0
KMC4 090523Z 09002KT 08/07 A3035 RMK A01 T00800065  RH  090%=      5-min Rain = 0
KMC4 090524Z 10002KT 08/06 A3035 RMK A01 T00800064  RH  090%=      5-min Rain = 0
KMC4 090525Z 10003KT 08/06 A3035 RMK A01 T00800064  RH  090%=      5-min Rain = 0
KMC4 090526Z 09003KT 08/06 A3035 RMK A01 T00800064  RH  089%=      5-min Rain = 0
KMC4 090527Z 09003KT 08/06 A3035 RMK A01 T00800064  RH  089%=      5-min Rain = 0
KMC4 090528Z 08003KT 08/06 A3035 RMK A01 T00800064  RH  089%=      5-min Rain = 0
KMC4 090529Z 09002KT 08/06 A3035 RMK A01 T00800064  RH  090%=      5-min Rain = 0
KMC4 090530Z 07002KT 08/06 A3035 RMK A01 T00810064  RH  090%=      5-min Rain = 0
KMC4 090531Z 06002KT 08/06 A3035 RMK A01 T00800064  RH  090%=      5-min Rain = 0
KMC4 090532Z 07002KT 08/06 A3035 RMK A01 T00800064  RH  090%=      5-min Rain = 0
KMC4 090533Z 08002KT 08/06 A3035 RMK A01 T00800064  RH  090%=      5-min Rain = 0
KMC4 090534Z 08002KT 08/06 A3035 RMK A01 T00810064  RH  090%=      5-min Rain = 0
KMC4 090535Z 07002KT 08/06 A3035 RMK A01 T00800064  RH  090%=      5-min Rain = 0
KMC4 090536Z 08002KT 08/06 A3035 RMK A01 T00800064  RH  090%=      5-min Rain = 0
KMC4 090537Z 07002KT 08/06 A3035 RMK A01 T00800064  RH  089%=      5-min Rain = 0
KMC4 090538Z 09002KT 08/06 A3034 RMK A01 T00800064  RH  089%=      5-min Rain = 0
KMC4 090539Z 09002KT 08/06 A3034 RMK A01 T00810064  RH  089%=      5-min Rain = 0
KMC4 090540Z 10003KT 08/06 A3034 RMK A01 T00800064  RH  089%=      5-min Rain = 0
KMC4 090541Z 10003KT 08/06 A3034 RMK A01 T00800064  RH  090%=      5-min Rain = 0
KMC4 090542Z 10003KT 08/06 A3034 RMK A01 T00800064  RH  090%=      5-min Rain = 0
KMC4 090543Z 11003KT 08/07 A3034 RMK A01 T00800065  RH  090%=      5-min Rain = 0
KMC4 090544Z 10002KT 08/07 A3034 RMK A01 T00790065  RH  090%=      5-min Rain = 0
KMC4 090545Z 08002KT 08/07 A3034 RMK A01 T00800065  RH  090%=      5-min Rain = 0
KMC4 090546Z 07002KT 08/07 A3034 RMK A01 T00790065  RH  090%=      5-min Rain = 0
KMC4 090547Z 07002KT 08/06 A3034 RMK A01 T00790064  RH  090%=      5-min Rain = 0
KMC4 090548Z 07002KT 08/06 A3034 RMK A01 T00790064  RH  090%=      5-min Rain = 0
KMC4 090549Z 07002KT 08/06 A3034 RMK A01 T00790064  RH  090%=      5-min Rain = 0
KMC4 090550Z 08002KT 08/06 A3034 RMK A01 T00790064  RH  090%=      5-min Rain = 0
KMC4 090551Z 08002KT 08/06 A3034 RMK A01 T00790064  RH  090%=      5-min Rain = 0
KMC4 090552Z 08002KT 08/06 A3034 RMK A01 T00790064  RH  091%=      5-min Rain = 0
KMC4 090553Z 08002KT 08/06 A3034 RMK A01 T00790064  RH  091%=      5-min Rain = 0
KMC4 090554Z 10002KT 08/06 A3034 RMK A01 T00790064  RH  091%=      5-min Rain = 0
KMC4 090555Z 10002KT 08/07 A3034 RMK A01 T00790065  RH  091%=      5-min Rain = 0
KMC4 090556Z 09002KT 08/06 A3034 RMK A01 T00780064  RH  091%=      5-min Rain = 0
KMC4 090557Z 09002KT 08/06 A3034 RMK A01 T00780064  RH  091%=      5-min Rain = 0
KMC4 090558Z 10003KT 08/06 A3034 RMK A01 T00780064  RH  091%=      5-min Rain = 0
KMC4 090559Z 09003KT 08/06 A3034 RMK A01 T00780064  RH  091%=      5-min Rain = 0

Page generated in 0.0756 seconds.